GFSFLT1_850_thetae_000.txt.gz
Theta_e
325 324 327 326 320 325 328 320 318 314 316 314 313 312 312 312 312 312 312 312 311 311 311 312 313 316 315 314 315 314 313 311
323 324 318 318 321 326 326 322 313 313 314 314 314 313 313 313 313 312 312 312 312 311 311 311 311 313 314 311 314 315 315 313
317 317 316 319 323 323 320 316 314 313 313 312 312 312 313 312 312 312 312 311 309 306 306 308 309 310 311 312 313 313 314 314
316 317 316 316 316 316 315 314 313 312 312 312 312 312 312 311 310 309 308 307 305 302 302 302 302 306 308 309 310 310 311 312
315 315 315 314 314 313 313 313 312 312 311 310 309 310 309 308 308 308 306 304 301 300 300 299 299 301 305 306 306 307 308 308
315 315 314 314 313 312 312 312 311 311 310 310 309 308 308 308 307 306 304 303 302 300 299 299 299 301 303 302 303 305 306 307
314 314 314 314 313 312 312 312 311 310 309 309 307 307 308 307 305 303 303 303 302 302 299 299 301 301 302 302 302 302 303 303
314 314 314 314 313 312 312 312 310 311 312 310 308 306 305 305 304 303 302 301 301 302 299 302 302 301 301 301 301 301 299 298
314 314 314 314 312 312 312 311 310 310 308 306 303 304 305 304 303 301 300 300 300 299 301 301 301 301 301 300 300 298 297 297
313 313 313 313 312 311 311 311 311 309 307 307 304 305 304 301 299 299 300 299 300 300 300 299 297 297 297 297 296 296 294 294
314 313 312 312 311 311 310 311 310 308 308 305 304 302 301 299 299 299 299 299 300 298 297 297 296 296 296 295 294 294 293 292
314 313 312 312 312 311 310 310 309 307 304 303 302 301 299 299 299 298 298 298 297 297 296 296 296 294 294 294 293 293 293 293
313 313 312 312 311 310 310 308 305 302 302 301 301 299 299 298 298 298 298 297 297 296 295 294 294 293 293 293 293 292 291 291
312 312 312 311 309 308 305 303 302 303 300 300 299 299 298 298 297 296 296 295 295 294 293 293 293 293 293 292 290 290 290 290
312 311 310 308 308 305 303 303 303 300 298 299 298 298 297 294 294 294 294 293 293 293 292 292 291 290 289 289 289 289 289 288
310 309 307 306 305 304 304 303 299 298 298 297 296 295 294 294 293 292 291 290 289 288 288 288 288 288 287 287 287 287 288 287
307 305 303 303 303 303 303 300 299 298 297 295 294 293 293 291 291 290 289 288 288 288 287 287 287 287 286 285 284 286 286 286
303 302 302 302 303 304 301 299 298 298 296 294 294 293 291 290 289 288 288 288 287 287 287 287 287 286 285 284 283 283 284 285
302 301 301 301 303 302 300 298 298 296 295 294 294 292 290 289 288 288 287 287 287 287 286 286 285 285 283 283 282 282 283 284

GFSFLT1_850_thetae_003.txt.gz
Theta_e
326 328 326 326 326 326 328 330 321 321 322 322 319 318 318 317 317 316 316 316 317 317 317 317 317 317 316 316 317 316 316 316
327 324 324 325 327 325 325 325 322 321 319 318 316 316 316 316 316 316 316 315 313 313 313 313 314 314 314 314 314 314 315 314
322 322 322 323 327 326 325 323 319 316 316 316 315 314 315 315 315 314 313 312 311 310 310 310 310 310 310 310 311 312 312 312
320 321 322 323 323 321 320 318 316 315 314 314 314 314 314 313 313 312 312 311 310 309 308 308 308 308 308 308 308 308 309 310
318 319 319 320 319 318 317 315 314 313 312 313 313 313 312 312 312 312 310 308 307 307 306 307 307 306 306 306 306 306 306 307
318 318 318 318 317 317 316 315 314 313 312 312 312 313 313 313 312 309 307 306 306 305 305 305 304 304 305 305 305 306 305 305
317 317 317 317 317 316 315 314 313 313 313 313 313 313 311 309 308 307 306 305 304 304 303 304 303 304 304 303 303 303 303 302
318 317 317 316 316 315 314 314 314 313 313 312 309 308 308 308 307 306 304 303 303 302 303 303 302 302 302 303 302 302 301 300
317 317 316 316 316 315 315 314 313 312 311 311 310 309 308 307 305 304 302 302 301 301 302 302 301 301 300 300 300 299 298 298
316 316 315 315 315 315 314 313 313 313 312 310 309 307 306 305 303 302 301 301 300 300 300 300 299 298 298 298 297 297 297 296
316 316 315 315 314 314 313 313 312 312 311 308 306 305 304 302 301 301 300 300 299 299 298 298 298 297 297 297 296 295 295 295
316 315 315 314 314 314 313 313 312 309 307 305 304 303 302 301 300 300 299 299 298 298 297 297 296 296 295 294 294 294 294 294
315 314 314 313 313 313 312 310 307 306 304 303 302 301 301 300 300 298 297 297 297 295 295 295 294 294 293 293 292 292 292 292
314 314 313 312 312 311 309 307 305 304 303 302 301 300 299 299 297 296 295 295 295 294 294 293 293 292 292 291 291 291 291 291
313 312 311 310 308 306 307 306 305 304 302 301 299 298 297 296 295 295 294 293 292 291 290 290 290 289 289 289 289 289 288 288
312 310 308 306 305 305 304 305 304 303 301 300 298 296 295 295 294 293 292 291 290 289 289 289 289 289 288 288 287 287 287 287
309 307 305 304 304 303 303 304 302 302 301 299 297 295 295 294 292 291 290 290 289 289 289 289 289 288 287 287 286 285 284 285
307 305 304 303 302 301 302 302 301 300 299 298 296 295 295 293 292 290 290 289 289 289 289 288 288 287 287 286 285 284 283 283
305 303 302 300 299 300 301 301 300 299 298 297 296 295 294 293 291 290 289 289 289 289 288 288 287 287 286 285 284 282 282 283

GFSFLT1_850_thetae_006.txt.gz
Theta_e
325 325 325 326 326 327 329 330 324 322 323 323 320 319 318 318 317 317 317 316 317 313 312 312 313 314 314 314 315 315 313 312
327 327 325 326 327 326 326 328 323 322 322 320 318 317 316 316 317 316 314 313 313 312 311 311 311 311 311 311 310 309 309 310
324 324 324 326 328 326 325 323 320 318 317 317 316 315 315 315 315 314 313 312 312 312 310 308 308 308 308 308 309 310 309 308
322 324 324 324 323 321 320 318 318 317 315 315 314 314 314 313 313 313 313 312 312 308 307 307 306 306 306 302 304 305 307 308
320 321 321 320 319 318 317 315 314 313 313 313 313 313 314 314 314 313 311 310 308 307 306 305 305 305 304 304 305 305 305 305
319 319 319 319 318 317 316 315 314 314 313 314 314 314 314 311 310 309 308 307 306 306 304 304 303 303 302 304 304 303 303 304
318 318 318 318 317 316 315 314 314 314 314 315 314 310 309 309 309 308 307 306 304 302 302 302 302 302 302 302 303 303 303 302
318 318 318 317 317 316 316 316 316 314 313 312 311 310 310 309 307 306 306 302 302 301 301 301 301 301 301 301 301 300 300 299
318 317 317 317 316 316 316 316 314 314 313 313 311 310 308 306 306 305 302 302 301 300 301 300 300 300 299 299 298 298 298 297
317 317 317 317 316 315 315 314 314 313 313 311 309 308 306 306 304 301 301 301 300 300 299 298 299 298 298 298 298 297 297 296
317 316 316 315 315 314 314 314 313 313 311 309 308 307 304 303 302 301 300 300 299 296 298 297 297 297 297 296 295 295 295 294
316 315 315 314 313 313 313 312 312 311 308 307 305 303 302 302 300 300 300 298 295 294 294 293 293 293 293 293 292 292 292 292
315 314 313 313 311 311 311 310 309 308 306 305 303 302 301 300 299 299 296 295 295 295 294 293 292 292 291 291 291 291 291 291
314 313 312 311 309 309 307 307 307 306 305 304 302 301 299 298 297 296 295 294 293 293 292 291 290 290 290 289 289 290 290 289
313 312 310 308 307 306 306 305 304 305 304 303 301 300 298 296 296 295 294 293 292 291 290 290 289 289 289 289 289 288 288 287
311 309 308 307 305 304 303 303 303 304 303 302 300 300 298 296 295 294 293 291 290 290 289 289 289 289 289 288 288 287 287 286
308 307 306 305 304 302 301 300 301 303 301 301 300 299 297 296 295 293 292 291 290 289 289 289 289 289 288 288 287 287 286 285
306 305 304 302 300 299 299 299 299 300 300 300 299 298 297 296 295 293 292 291 290 289 289 289 288 288 287 287 286 285 283 282
304 302 301 300 299 298 297 297 297 297 298 299 298 298 296 295 295 294 291 290 289 289 289 289 288 287 287 285 284 283 282 280

GFSFLT1_850_thetae_009.txt.gz
Theta_e
327 327 326 327 327 329 329 327 326 324 322 323 321 321 318 318 317 317 316 316 315 315 315 312 312 310 309 310 311 311 310 307
325 325 326 326 327 329 327 323 323 323 323 322 320 319 316 316 316 316 316 315 314 314 313 311 309 308 308 308 307 306 305 307
325 326 325 324 325 325 323 322 320 319 318 318 317 316 315 314 314 314 313 313 313 313 311 309 307 307 306 306 305 304 300 302
323 325 323 320 320 319 319 318 317 316 316 315 314 313 313 314 313 313 311 309 308 308 307 306 306 305 305 304 303 302 302 303
321 320 320 319 317 317 317 316 315 314 313 314 314 314 314 313 313 310 308 308 308 307 306 305 303 302 303 303 301 301 304 304
319 319 318 317 317 316 315 315 314 315 314 314 314 313 310 309 309 309 308 307 307 306 305 303 300 300 300 301 301 302 302 303
318 318 318 317 317 316 316 316 316 315 314 314 312 311 310 309 309 309 308 307 306 303 301 300 300 300 301 301 301 301 301 300
318 318 317 317 316 316 316 316 316 315 314 313 312 311 310 309 307 306 306 304 301 301 300 300 300 299 300 299 299 298 298 299
317 317 316 316 316 315 315 314 314 314 313 313 312 310 309 306 306 305 301 301 300 300 300 299 297 297 297 297 297 297 297 297
317 317 316 316 314 314 314 313 313 313 313 312 309 308 306 306 303 302 301 300 300 299 296 293 294 293 292 292 293 292 293 294
316 315 314 314 314 313 312 312 312 311 310 309 308 306 303 302 302 301 300 300 299 294 292 293 293 292 292 292 291 291 290 291
314 314 313 312 311 310 310 309 308 308 307 306 304 304 303 302 301 301 300 297 295 293 293 292 292 291 290 290 289 289 290 290
313 313 312 311 310 309 307 306 305 305 304 304 305 304 302 301 300 299 296 295 294 293 293 291 290 290 289 289 289 289 289 289
313 312 309 308 308 306 305 304 303 303 302 304 304 303 302 301 300 296 295 295 294 292 291 290 289 289 289 289 289 289 288 288
311 308 308 307 305 304 303 301 300 300 300 303 302 301 301 300 297 296 294 294 292 291 290 290 289 289 289 289 288 289 288 287
308 306 305 304 303 301 300 299 299 298 297 298 299 300 300 298 298 296 295 294 291 290 290 289 289 289 288 288 288 288 287 286
306 304 304 302 301 300 299 298 297 297 296 296 296 299 299 298 297 296 294 293 291 290 289 289 289 289 288 288 288 287 285 284
302 303 301 300 299 298 297 296 296 295 295 295 297 296 296 296 295 295 294 294 291 289 289 289 289 289 288 287 285 284 284 283
301 300 299 298 297 297 296 295 295 294 294 295 295 295 295 295 295 294 293 291 290 290 289 289 288 288 286 284 284 283 283 282

GFSFLT1_850_thetae_012.txt.gz
Theta_e
327 327 327 328 331 330 329 328 326 325 326 322 322 321 320 318 317 316 316 315 315 314 313 313 313 312 311 311 307 307 306 304
326 326 328 332 331 329 327 327 325 324 322 322 321 319 316 315 315 314 314 314 313 313 313 313 312 310 307 307 306 304 302 302
325 326 329 329 328 325 324 324 324 323 323 320 318 315 314 314 314 313 313 313 312 310 308 308 307 306 305 304 303 302 303 300
320 321 322 322 322 319 318 317 317 317 315 314 313 313 313 313 313 312 311 309 308 308 307 306 305 303 302 300 300 300 299 299
319 318 317 317 317 316 315 314 314 314 314 314 314 313 313 312 311 310 309 309 308 306 306 306 304 302 300 297 297 299 300 301
318 317 317 316 316 314 315 315 315 315 315 313 313 313 312 311 310 309 308 307 307 306 303 302 299 297 299 299 300 300 300 300
317 317 317 317 316 316 316 316 316 315 314 313 313 312 311 310 309 307 307 307 305 306 301 299 299 299 299 297 297 298 298 298
317 317 317 316 316 316 316 315 314 314 314 313 312 311 309 307 307 306 307 305 304 301 300 300 299 296 293 293 293 293 294 294
317 317 316 315 315 314 314 314 313 313 313 311 309 307 307 307 306 306 304 302 301 300 300 298 293 292 291 292 291 292 291 290
315 315 315 315 314 313 312 311 311 311 311 309 307 303 303 304 302 302 301 301 301 300 297 293 292 291 291 291 290 289 289 289
314 313 313 312 311 310 309 307 306 305 304 303 303 302 303 303 302 302 301 300 300 297 293 293 291 292 290 289 289 289 289 289
312 311 311 309 308 307 305 305 304 303 302 301 301 302 302 302 303 302 301 300 298 295 294 293 291 290 289 289 289 289 289 289
311 310 308 306 306 304 304 303 302 301 300 300 302 303 303 302 302 301 298 296 294 293 293 292 290 290 289 289 288 288 288 288
310 307 304 303 304 304 303 301 300 299 299 298 297 296 296 298 301 300 297 295 295 294 291 290 290 289 289 289 288 288 288 288
309 304 303 304 303 302 300 300 299 299 298 297 296 294 295 299 298 297 297 296 294 292 290 290 290 289 289 289 288 288 288 288
303 303 303 302 301 300 299 298 298 297 296 295 294 293 294 294 294 294 296 293 293 290 290 290 289 289 289 288 288 288 287 285
302 302 302 300 299 298 298 297 296 295 294 294 294 293 294 293 293 294 295 294 291 292 291 289 289 289 288 288 287 285 284 283
302 301 299 298 298 297 296 295 295 294 294 294 294 294 293 292 293 294 294 294 292 291 290 289 289 288 287 286 285 284 283 282
300 299 298 297 297 296 295 295 294 294 294 294 294 294 293 292 293 292 293 291 291 290 289 288 288 287 286 284 283 282 282 281

GFSFLT1_850_thetae_015.txt.gz
Theta_e
327 327 327 327 325 328 327 326 325 325 322 322 321 320 319 318 317 317 317 316 315 314 313 313 310 309 308 309 307 306 305 304
326 327 326 327 329 329 328 326 325 323 323 321 318 319 316 315 314 314 314 315 314 313 311 309 309 308 307 306 304 303 302 301
328 330 331 330 328 325 325 326 324 321 320 320 320 315 314 313 313 314 313 312 311 309 310 309 308 306 304 303 302 301 298 296
327 326 325 324 322 322 318 318 319 318 318 316 313 314 313 313 312 311 312 311 309 309 308 307 305 303 303 299 297 297 296 296
320 319 319 318 317 316 316 314 314 314 314 313 313 312 312 312 312 311 310 309 308 306 305 303 304 304 302 298 297 298 297 297
317 316 316 315 315 315 315 315 315 315 314 314 313 313 312 311 309 309 308 306 305 306 306 306 301 299 298 298 296 294 294 296
316 316 316 315 315 314 315 315 315 314 314 314 313 312 310 309 308 307 307 306 304 303 300 301 300 299 299 294 292 292 291 292
317 316 316 315 315 315 315 314 313 313 312 312 311 308 306 304 303 302 301 302 301 300 301 300 300 296 292 291 291 290 290 289
316 316 316 315 314 313 313 312 311 310 310 309 306 303 302 300 301 302 301 302 302 301 300 299 293 292 291 290 289 289 289 289
316 315 314 313 312 311 309 307 305 305 303 302 301 301 300 302 302 301 301 301 301 299 297 293 293 292 291 290 289 289 289 288
313 312 311 311 310 308 305 304 303 302 300 300 300 301 303 303 302 300 301 301 299 297 296 294 293 292 290 289 289 288 288 288
311 311 311 309 306 304 303 303 302 301 300 299 299 298 299 296 295 298 300 298 297 298 297 294 292 291 290 289 288 288 288 288
310 310 307 305 304 304 303 302 301 300 299 299 297 296 294 293 294 298 298 297 296 297 296 295 291 290 289 289 288 288 288 288
309 306 304 304 304 303 301 301 300 299 298 297 296 295 293 292 292 292 292 293 295 296 294 293 290 289 290 289 289 288 288 288
306 303 303 303 302 301 300 299 298 297 297 296 295 293 293 293 293 293 291 294 295 293 292 290 289 290 289 289 289 288 288 287
304 302 302 302 301 300 299 298 297 296 296 295 294 293 294 293 293 292 292 294 294 293 292 290 290 289 289 289 288 287 286 284
303 302 301 301 300 298 297 296 296 295 295 294 294 294 294 293 293 291 292 293 293 293 291 290 289 289 288 288 287 285 284 283
302 301 300 299 298 297 296 296 295 295 294 294 294 294 294 293 292 291 292 292 292 291 291 290 289 288 287 286 284 283 282 281
301 300 299 297 296 296 295 295 295 294 294 294 294 293 293 292 291 291 292 291 291 291 289 289 288 287 286 284 282 281 280 280

GFSFLT1_850_thetae_018.txt.gz
Theta_e
326 326 326 324 323 329 328 324 325 323 325 322 321 319 318 318 318 317 316 314 316 316 314 311 309 308 308 307 306 305 304 304
326 326 326 326 327 328 327 325 326 325 323 318 316 319 320 317 314 314 314 313 313 312 311 309 309 309 308 306 304 304 303 302
329 329 328 329 328 327 326 325 324 320 318 319 319 315 313 313 312 312 312 311 311 311 310 309 308 307 305 305 304 301 297 295
327 325 323 322 319 319 318 319 317 315 314 313 313 313 312 312 312 312 311 311 310 309 308 307 306 306 306 300 298 296 296 294
322 319 318 317 315 314 313 313 314 314 314 314 314 313 313 313 312 311 309 308 307 306 305 304 302 300 299 297 296 296 292 292
316 316 315 314 314 314 314 315 315 315 314 314 313 313 313 311 309 308 306 304 301 300 300 299 299 300 300 298 295 291 291 290
316 316 315 315 314 315 315 315 315 314 313 312 312 311 309 307 303 301 300 300 299 299 301 301 300 297 294 292 291 290 289 288
315 315 314 314 315 315 315 314 313 311 310 309 308 305 302 300 299 301 301 300 300 300 300 300 300 297 293 292 291 289 288 288
315 315 315 315 315 314 313 311 308 306 304 301 299 299 300 301 303 303 302 298 300 301 300 300 299 296 294 294 291 289 288 288
315 314 314 313 312 311 307 305 304 302 300 299 299 299 299 301 301 298 295 295 299 300 298 298 296 297 295 291 290 289 288 288
313 312 312 311 309 307 306 308 303 301 300 300 299 298 297 296 295 294 293 296 299 299 296 296 296 295 292 291 289 289 288 288
312 311 310 309 307 311 310 304 302 300 300 299 298 296 295 294 293 292 292 292 292 295 295 296 295 294 292 290 289 289 288 288
311 311 309 308 312 308 304 302 301 300 299 298 297 295 294 293 293 293 293 292 291 293 295 294 293 293 291 289 289 289 288 288
309 308 306 305 304 303 302 301 300 299 298 296 295 294 293 292 293 293 293 291 291 293 294 293 293 291 289 290 289 289 288 288
308 305 304 304 303 302 301 300 298 297 296 295 294 293 293 293 293 293 292 291 291 292 294 294 293 289 290 290 289 289 288 287
306 304 303 303 302 300 299 298 297 295 295 295 294 293 293 293 293 293 292 291 291 293 293 292 290 290 290 289 288 287 287 285
304 302 302 303 301 300 298 297 295 295 295 294 294 294 293 293 293 292 291 291 291 291 291 292 291 290 288 288 287 286 285 282
303 302 302 300 299 298 296 296 295 295 294 294 293 294 293 293 292 291 291 291 291 291 291 290 289 288 288 287 286 284 282 281
303 302 301 299 297 296 296 295 295 294 294 293 293 293 293 292 291 290 290 291 291 290 290 289 288 288 287 286 284 282 281 281

GFSFLT1_850_thetae_021.txt.gz
Theta_e
324 323 323 323 323 324 328 327 326 325 320 324 322 320 317 318 319 317 315 314 315 314 313 311 310 308 308 307 306 305 305 304
326 325 325 325 325 326 327 327 325 323 323 321 318 318 319 315 314 314 313 312 311 311 310 309 307 306 306 306 306 305 301 297
326 326 326 326 326 327 327 325 323 321 319 318 318 314 313 312 312 312 312 311 311 309 307 306 306 305 303 301 298 297 296 295
327 327 325 324 325 325 325 321 318 318 317 313 313 313 312 312 312 312 311 309 308 307 305 301 300 299 299 300 299 298 295 293
322 320 318 318 318 317 316 314 314 314 313 313 313 313 313 313 312 310 308 307 304 300 298 296 298 300 300 299 299 295 292 291
318 316 316 315 315 313 313 314 314 314 314 313 313 313 312 310 308 305 302 300 298 298 298 297 296 297 300 299 297 291 290 289
315 314 313 313 313 314 314 315 315 314 313 312 310 309 306 302 300 299 299 298 298 297 299 301 299 299 298 297 294 293 291 289
314 314 313 313 313 314 315 314 313 312 309 305 301 298 297 297 297 297 298 299 297 296 296 300 300 297 297 296 295 292 289 288
314 314 314 314 314 314 314 312 309 305 303 300 299 299 298 299 299 299 296 294 294 294 295 299 299 297 296 295 293 290 289 288
314 314 314 314 314 313 310 307 305 302 302 299 299 298 297 296 296 295 293 292 292 291 294 298 298 295 295 295 292 291 289 288
315 315 314 312 310 308 310 312 310 308 300 299 299 297 296 296 295 293 292 292 291 291 291 296 296 295 294 294 292 290 289 289
315 313 311 309 307 309 310 305 303 300 300 299 297 296 296 294 292 292 292 292 291 291 291 294 294 294 294 293 292 289 289 289
313 311 309 307 306 307 303 304 301 300 299 298 296 296 295 293 293 293 293 292 291 290 291 293 293 293 293 292 290 289 290 289
311 309 308 306 305 304 303 302 300 299 298 296 296 295 293 293 293 293 293 292 291 291 291 292 294 293 293 289 289 290 289 289
310 309 307 304 304 304 303 300 299 298 296 296 296 294 294 293 293 293 292 291 291 291 291 291 292 292 290 290 290 289 288 287
309 308 305 304 303 305 301 299 298 296 296 296 295 294 294 294 293 292 291 291 291 291 291 290 291 292 291 290 289 288 287 286
309 307 304 303 305 302 300 298 296 296 296 295 294 294 293 293 292 291 291 290 290 291 291 291 290 290 288 288 288 287 286 284
309 306 304 304 304 300 298 297 296 296 295 293 293 291 292 292 291 290 290 290 290 291 291 290 290 288 288 287 287 285 284 282
308 304 303 305 300 298 297 296 296 295 293 291 290 291 291 291 290 290 290 290 289 290 289 289 289 288 287 286 285 284 282 282

GFSFLT1_850_thetae_024.txt.gz
Theta_e
326 325 328 329 330 326 327 328 327 326 321 321 321 322 319 319 319 318 316 314 314 312 311 310 309 308 308 308 307 307 306 305
324 324 324 328 327 328 327 327 326 323 322 323 321 318 318 317 316 314 313 313 312 310 309 308 308 307 307 305 304 303 302 302
327 329 328 326 326 328 327 327 326 324 321 319 318 318 316 313 313 313 312 311 310 309 308 306 306 303 304 303 302 301 300 300
328 329 328 327 327 327 328 327 324 319 318 319 317 314 313 313 312 311 311 309 307 306 305 302 299 300 300 301 300 300 299 297
328 328 328 329 329 328 323 320 318 317 317 315 316 315 315 312 311 309 307 306 303 301 299 298 300 300 301 300 298 298 297 297
324 323 324 324 324 321 318 316 315 314 313 314 313 312 311 309 307 305 305 304 303 303 302 301 301 301 300 299 298 297 296 296
318 317 317 317 317 316 314 314 313 313 313 312 310 306 304 304 304 303 302 302 303 303 302 301 300 300 299 298 298 296 296 295
316 316 315 315 315 314 314 313 313 312 309 305 302 302 302 303 302 302 302 300 299 299 298 298 299 299 298 298 297 296 296 294
316 316 315 315 314 314 313 313 310 307 303 304 304 300 302 302 301 299 298 297 296 296 296 297 298 298 299 297 296 296 295 294
317 316 316 315 314 314 313 309 307 307 308 302 299 298 299 298 298 298 296 296 295 295 295 296 297 298 298 297 296 296 295 294
317 316 315 314 313 312 309 309 308 303 303 300 299 298 297 297 297 296 295 295 295 294 294 295 296 296 296 296 295 295 294 293
317 316 315 313 312 310 310 306 305 301 301 299 298 298 297 297 296 296 295 295 295 294 294 294 295 295 295 295 294 295 293 292
317 315 313 311 310 309 307 303 303 303 300 298 298 297 297 297 296 296 295 295 294 294 294 294 294 294 294 294 294 292 292 291
317 314 312 310 308 308 303 305 305 300 299 298 298 298 297 296 296 296 296 295 294 294 294 294 294 294 292 292 292 291 291 290
316 313 311 309 307 305 304 306 301 300 298 298 297 297 297 296 296 296 295 294 293 293 293 293 293 292 292 291 290 290 290 289
315 313 311 309 306 304 305 303 301 299 298 297 297 297 295 295 295 296 295 294 293 293 293 293 292 291 290 290 290 289 288 287
313 312 310 307 305 304 306 302 299 298 297 297 296 294 294 294 295 294 293 293 293 293 292 292 291 289 290 289 288 287 287 285
312 311 309 307 305 306 305 300 299 297 296 296 294 293 293 294 294 293 293 293 292 292 292 291 290 289 289 288 287 286 285 284
312 310 308 305 304 304 300 299 297 296 296 294 293 293 293 293 293 293 293 292 292 292 292 290 289 288 288 287 286 284 284 283

GFSFLT1_850_thetae_027.txt.gz
Theta_e
329 327 327 327 330 332 331 329 325 324 324 322 320 320 321 321 319 318 317 316 314 313 313 311 311 312 311 311 310 308 307 305
330 330 330 331 332 331 332 330 327 326 325 324 323 321 319 318 317 315 314 313 312 311 312 312 311 310 308 308 306 304 303 302
330 331 331 332 331 330 329 330 327 327 325 325 323 321 319 316 314 313 313 312 311 310 310 309 307 306 304 303 304 303 302 301
331 332 331 330 329 329 328 328 328 326 323 321 321 320 316 315 314 314 312 311 309 308 307 306 304 303 303 302 302 302 301 300
331 332 330 329 328 327 328 327 325 322 320 319 319 318 317 317 315 313 311 309 307 305 304 304 304 303 303 302 301 300 300 299
331 331 330 330 327 327 326 323 321 320 318 318 318 317 315 313 310 308 306 306 305 305 305 304 304 303 302 301 300 300 299 298
327 327 327 327 327 323 321 319 318 317 317 316 315 312 308 307 306 305 305 304 303 302 301 301 300 300 301 300 300 299 298 298
322 322 322 323 322 320 318 317 316 315 313 311 308 306 308 309 305 304 302 301 300 299 298 298 298 298 299 300 299 298 297 297
320 319 319 319 319 318 316 316 315 313 309 307 308 306 305 304 303 301 300 299 298 298 297 297 297 298 298 299 299 298 297 297
320 319 319 319 318 317 316 316 313 309 308 308 303 301 300 301 300 300 299 298 297 297 297 296 296 296 297 298 298 297 297 296
320 319 319 319 318 317 317 314 310 309 306 304 301 300 301 300 300 299 298 298 297 297 296 296 296 296 296 296 297 296 296 296
320 320 319 318 317 317 314 312 310 306 304 304 303 301 300 300 300 299 298 298 297 296 296 295 295 295 295 296 295 295 295 295
321 320 319 318 317 315 313 311 308 305 307 304 301 301 300 300 299 298 298 298 297 296 295 295 295 295 294 294 294 293 293 294
321 320 319 318 316 314 312 309 306 308 306 303 301 300 300 300 299 298 298 297 297 296 295 295 295 294 293 293 292 293 292 292
322 321 319 317 315 314 310 307 306 307 303 302 300 300 300 299 298 297 297 297 296 295 295 294 294 294 293 292 292 292 291 291
321 320 319 317 314 312 308 306 307 306 302 301 300 299 299 298 297 297 297 296 295 295 294 294 294 293 292 291 291 290 290 289
320 320 319 317 314 311 307 305 305 304 301 300 299 299 298 297 296 296 296 295 294 294 294 294 293 292 291 289 289 289 288 287
318 318 318 316 314 310 306 304 305 302 300 299 298 298 296 295 295 295 294 294 294 294 294 293 293 292 290 289 288 287 286 286
317 317 316 315 312 308 305 305 302 300 299 298 298 296 295 295 294 294 294 294 294 294 293 293 292 291 290 288 287 286 286 286

GFSFLT1_850_thetae_030.txt.gz
Theta_e
326 324 325 327 331 330 328 329 327 327 324 323 322 321 320 319 321 319 318 317 316 314 313 312 312 312 311 310 308 305 304 302
328 326 325 326 332 332 330 328 326 325 324 324 324 322 320 321 318 317 315 314 313 312 312 312 310 310 308 305 303 303 302 302
331 329 330 333 333 332 330 328 328 325 326 325 323 322 320 318 317 314 313 312 312 311 311 310 308 305 302 302 302 302 303 302
331 331 332 333 333 331 329 328 327 326 326 324 323 321 319 317 314 314 313 312 310 309 307 305 303 303 303 303 302 302 301 301
331 332 333 333 332 329 329 328 327 325 324 322 321 320 317 316 316 314 312 310 307 306 305 305 305 305 302 302 303 302 301 300
331 333 332 330 329 328 330 328 325 324 321 321 319 318 317 316 313 312 308 306 306 305 305 304 304 304 301 301 301 301 300 300
330 332 330 328 327 328 327 325 323 322 320 319 319 317 314 311 308 309 307 305 304 303 302 301 299 296 298 299 300 300 300 299
330 331 330 327 326 326 324 322 320 319 318 318 316 315 311 308 310 306 305 304 301 300 299 297 296 295 297 298 299 300 300 297
328 327 327 328 325 323 321 319 318 317 315 312 310 309 309 307 305 305 303 301 300 298 298 297 295 296 296 297 298 298 298 298
324 323 324 324 322 320 319 318 317 315 311 309 308 308 306 304 304 305 300 300 298 298 297 296 296 296 296 296 296 297 297 297
322 321 321 321 320 319 317 317 316 313 309 309 308 305 304 305 301 300 300 299 298 298 297 297 296 296 296 295 296 296 296 296
322 321 320 320 319 319 317 317 315 311 309 308 306 306 304 302 301 301 300 298 298 298 297 296 295 295 295 295 295 293 294 293
322 321 320 320 320 319 318 317 313 310 308 307 306 305 304 301 301 300 299 298 298 298 297 296 295 295 295 295 294 294 292 293
323 322 321 320 320 319 318 315 313 310 306 305 305 303 301 301 300 300 299 298 298 298 297 296 295 295 295 294 293 292 292 292
323 322 321 321 320 318 317 315 312 308 305 306 303 302 301 300 300 300 298 298 297 297 296 295 295 294 294 293 292 292 291 291
322 322 322 321 320 318 317 314 311 307 306 304 302 301 300 300 300 298 297 297 297 297 295 295 294 294 294 293 292 289 290 289
320 321 322 321 320 318 316 313 309 306 306 303 301 302 300 299 298 297 296 296 296 295 295 295 294 294 293 292 291 289 288 287
317 319 319 320 320 318 315 312 307 306 305 302 301 300 299 298 296 295 295 295 294 294 295 294 294 294 293 292 291 288 287 286
316 316 317 318 319 317 314 310 306 305 304 301 300 298 297 296 295 294 294 294 294 294 294 293 293 293 292 291 290 288 287 286

GFSFLT1_850_thetae_033.txt.gz
Theta_e
328 328 329 328 328 325 322 324 325 326 323 320 318 319 319 320 319 321 319 318 316 314 313 313 311 311 311 310 306 302 301 300
325 326 328 328 329 328 325 325 327 325 322 320 320 323 320 320 320 320 317 314 313 313 312 312 311 310 307 303 301 301 300 300
325 325 327 329 330 329 328 326 327 327 322 322 323 323 321 320 319 317 314 313 312 312 311 311 308 304 301 301 300 299 300 301
327 328 328 331 331 331 330 329 325 326 325 324 325 321 319 318 317 313 313 312 312 310 308 305 304 304 303 302 300 299 301 301
329 329 332 332 332 331 330 329 327 326 325 326 323 321 319 318 315 315 313 312 308 307 307 306 304 304 303 302 300 299 299 300
331 330 331 333 333 331 329 328 327 325 324 323 322 320 319 317 316 314 313 308 306 307 306 305 304 303 302 299 295 298 300 300
331 331 332 332 332 329 328 328 325 324 324 323 321 320 319 316 314 313 308 306 306 305 304 304 303 301 296 293 294 296 299 300
331 331 332 332 330 327 328 328 325 324 321 321 320 319 317 316 314 309 308 307 305 304 303 301 298 295 294 293 295 297 298 298
330 332 331 328 327 326 327 325 324 322 321 319 319 316 314 313 309 309 309 308 305 300 299 296 296 296 294 293 293 295 296 298
331 330 330 327 325 326 326 324 321 320 319 319 318 317 314 309 309 308 309 306 302 299 297 297 296 295 294 295 295 295 296 296
328 328 328 327 326 325 323 321 319 319 318 317 315 312 310 307 305 304 304 300 299 298 297 297 297 296 295 295 295 296 295 295
325 325 324 325 325 323 321 319 318 317 316 313 310 309 306 302 304 303 300 300 299 298 298 297 297 297 295 295 295 295 294 293
323 322 321 321 321 320 319 318 317 316 315 311 309 309 305 305 302 301 302 300 299 298 298 298 297 296 295 295 295 294 293 292
323 321 320 320 320 319 319 318 317 316 313 310 309 308 306 303 301 301 300 299 298 298 298 298 297 296 295 295 294 294 293 292
324 322 321 320 320 320 319 318 318 317 312 309 309 307 304 302 302 300 300 300 298 297 297 297 297 294 295 294 294 294 292 291
324 323 322 320 320 320 319 318 318 317 313 310 308 304 303 302 300 301 301 297 297 296 297 296 295 295 294 294 294 293 292 291
317 320 322 322 321 320 319 318 317 316 314 308 307 303 302 301 300 301 297 295 294 295 295 295 295 295 294 294 294 293 291 289
316 316 317 321 321 320 319 318 315 312 309 307 303 302 301 299 299 297 296 294 294 294 294 294 294 294 294 293 293 292 291 289
313 314 315 315 318 320 319 317 313 309 306 303 302 300 299 297 297 294 294 293 293 293 293 293 294 294 293 292 292 291 291 289

GFSFLT1_850_thetae_036.txt.gz
Theta_e
328 327 328 329 328 326 324 325 323 325 326 326 326 324 320 317 320 320 320 320 320 319 318 314 312 311 311 309 306 301 300 300
330 330 330 330 329 325 317 319 322 324 324 324 324 320 318 321 320 320 319 318 317 313 312 312 311 311 308 303 301 301 298 298
330 331 330 329 328 324 321 317 320 324 325 323 320 318 320 321 320 319 317 314 312 312 312 311 310 307 304 302 301 299 297 298
328 329 329 328 328 327 327 325 324 326 326 323 320 320 323 321 319 318 316 313 312 312 310 309 309 309 303 302 302 300 298 298
325 327 328 328 328 328 329 328 327 327 326 323 321 323 323 321 319 318 314 312 312 311 310 310 309 306 304 303 301 298 295 298
324 324 325 327 328 329 330 328 328 326 326 325 323 325 322 319 318 315 313 313 312 311 310 308 306 304 303 302 299 293 293 295
327 327 328 328 329 330 329 329 328 327 326 325 324 323 321 319 317 315 314 311 309 307 306 305 304 303 300 297 294 293 293 296
328 329 330 331 331 330 330 329 327 327 325 324 323 322 321 319 317 315 313 310 307 306 307 305 300 300 296 294 293 292 293 295
330 330 330 331 331 331 329 327 327 325 324 324 323 323 321 319 317 314 309 307 307 304 302 302 298 296 295 294 293 293 294 294
331 330 331 331 330 329 328 328 328 325 325 323 322 320 316 314 311 308 307 304 304 304 302 298 297 296 296 295 293 294 295 295
330 331 331 331 329 326 326 327 327 325 323 320 319 316 313 311 309 307 305 304 303 300 300 299 298 297 297 296 295 294 295 295
329 330 330 329 328 326 325 325 325 324 322 320 319 317 315 312 308 306 303 302 301 302 301 298 298 298 298 297 296 294 295 294
329 329 329 328 327 326 325 324 324 322 320 319 318 316 314 311 306 302 305 303 302 299 298 298 298 298 297 297 295 294 295 294
328 328 327 326 325 322 323 324 321 321 319 317 316 314 311 308 306 306 306 303 300 298 298 298 298 297 297 296 294 295 294 294
327 326 325 324 323 322 323 322 320 319 317 317 316 314 310 308 306 304 305 299 300 299 298 297 296 297 296 294 295 294 294 294
323 322 322 322 322 322 322 320 319 318 317 314 311 309 306 304 302 301 299 299 298 296 295 295 295 294 293 294 294 294 294 293
316 318 322 321 320 320 320 319 319 318 316 312 308 305 302 303 301 299 298 298 299 295 295 294 294 293 294 294 294 294 293 293
314 315 316 320 321 320 320 319 318 317 313 308 306 304 303 302 301 297 297 296 295 294 294 293 293 293 294 294 294 293 293 292
313 313 313 315 318 320 319 318 317 312 308 306 304 302 302 298 296 296 298 298 296 294 293 293 292 293 294 293 293 292 292 292

GFSFLT1_850_thetae_039.txt.gz
Theta_e
328 327 325 323 323 323 326 325 321 322 323 323 324 328 328 326 322 318 319 320 320 320 320 319 316 312 311 310 306 302 300 297
328 324 322 321 325 326 327 327 324 323 323 325 326 328 327 323 318 321 320 320 320 319 319 315 312 311 309 306 303 301 299 298
330 326 325 325 327 326 327 325 325 323 323 325 327 327 323 319 320 320 319 319 318 317 313 311 311 309 308 305 303 301 299 297
330 328 327 328 328 328 326 320 321 322 322 326 326 324 320 320 320 320 319 317 315 312 311 311 308 308 307 306 303 301 300 296
330 329 328 329 328 328 327 322 319 319 323 325 325 324 320 319 321 321 318 316 313 312 311 308 308 309 307 308 304 301 297 294
330 329 328 328 329 329 327 323 320 320 322 325 326 324 320 322 322 320 317 315 313 312 310 309 307 305 306 301 300 296 293 293
328 328 329 329 329 329 327 326 324 324 326 327 326 322 321 322 323 319 317 314 312 311 308 307 305 304 306 301 296 294 293 293
325 326 327 328 328 328 327 327 326 327 328 327 327 325 322 323 321 319 317 314 313 310 307 305 303 305 303 296 295 294 292 293
324 325 325 325 326 327 327 327 327 328 328 327 326 326 324 323 321 319 317 315 312 308 306 306 303 304 297 297 296 295 293 293
326 326 327 326 326 327 328 328 328 328 328 327 325 325 324 322 321 319 315 312 308 306 305 305 305 299 298 297 297 296 296 294
327 327 328 329 329 330 330 330 328 327 327 325 324 323 323 322 320 317 314 308 305 306 307 304 304 300 298 297 297 297 296 294
329 330 329 330 330 330 330 327 326 326 326 325 324 323 322 321 318 314 312 310 310 308 302 303 300 298 298 297 297 297 295 294
326 327 329 329 330 331 329 327 325 324 324 324 324 320 318 316 315 314 311 308 303 301 302 299 298 298 298 297 297 296 294 294
327 328 328 327 329 329 328 326 325 324 323 322 322 319 318 315 311 306 304 301 301 302 301 298 298 297 297 297 296 293 294 294
327 328 329 328 328 328 327 325 325 323 322 322 319 317 315 311 307 305 304 301 303 301 299 297 297 296 296 295 293 293 294 294
326 326 327 328 328 328 326 325 323 322 321 319 318 316 312 308 306 303 301 302 300 299 296 296 295 296 295 293 294 294 294 294
319 320 322 322 323 324 325 323 322 322 320 318 316 310 307 306 303 302 302 299 298 296 299 299 297 294 294 293 294 294 294 294
314 315 315 318 319 319 319 320 321 320 318 316 312 308 306 302 302 302 300 298 298 300 299 294 294 293 293 293 293 293 293 293
313 313 313 313 314 315 318 318 318 317 314 310 307 306 304 302 301 299 299 300 299 296 295 293 293 292 291 292 293 293 293 292

GFSFLT1_850_thetae_042.txt.gz
Theta_e
325 323 320 320 322 324 325 325 323 319 314 318 323 325 325 326 324 320 318 318 319 320 320 320 319 316 312 310 309 306 302 299
328 326 324 321 322 322 323 325 324 319 315 322 326 327 326 326 324 321 319 319 320 320 320 319 316 312 311 309 307 303 301 299
329 327 327 324 323 321 321 321 325 320 320 323 324 323 325 326 324 323 319 320 320 320 318 317 312 311 309 307 305 302 300 298
329 329 325 323 321 323 322 323 325 324 321 322 323 326 327 326 325 320 319 319 319 318 316 313 311 310 307 306 304 301 298 297
330 329 328 325 323 324 326 325 325 325 324 323 322 324 326 326 324 320 319 318 317 315 313 311 310 307 306 305 303 303 303 298
330 330 328 327 326 326 327 327 327 324 324 324 323 325 326 324 322 319 319 317 315 313 312 311 307 306 305 306 307 304 306 295
328 329 329 328 327 327 328 328 327 326 324 323 323 325 325 324 321 320 319 317 315 313 311 310 307 306 305 307 311 306 295 294
328 327 329 328 327 327 328 328 328 327 324 322 321 322 325 322 321 321 320 318 316 314 312 310 307 305 306 310 308 299 298 295
327 326 327 328 327 327 328 329 329 328 326 323 323 323 326 323 321 323 321 318 317 314 311 307 305 307 311 307 305 298 296 295
325 325 325 326 327 326 327 327 327 327 327 325 326 326 326 324 323 321 320 317 316 313 311 314 310 310 306 303 299 297 296 296
324 324 324 325 325 325 325 325 325 326 327 326 326 327 326 323 322 322 321 319 317 316 314 309 310 306 302 299 297 297 297 296
324 325 326 325 325 325 325 327 328 328 328 328 327 326 325 322 322 319 319 319 317 313 309 307 303 302 299 298 297 297 297 296
326 327 327 327 327 328 328 329 329 325 325 326 325 324 323 321 320 321 319 317 314 305 305 302 301 299 299 297 297 297 296 294
326 328 328 328 328 328 329 327 325 324 324 322 322 322 321 321 320 319 316 311 306 307 302 301 300 301 297 297 296 296 295 293
325 326 327 328 329 328 327 326 325 325 324 324 323 322 320 317 316 313 310 306 305 300 301 301 298 297 297 296 295 295 294 294
325 325 326 326 327 328 327 326 326 325 324 323 322 318 315 313 312 308 303 302 301 301 300 300 299 299 296 295 296 294 294 294
319 319 319 319 320 320 321 322 323 324 323 322 319 314 311 310 307 304 302 301 301 300 301 300 299 298 297 294 293 293 293 293
314 314 314 314 314 315 317 318 318 319 320 318 315 312 308 305 302 302 301 300 300 300 300 299 297 295 294 293 293 291 292 293
313 313 313 313 313 313 314 316 317 316 315 313 310 308 306 303 301 299 299 300 300 300 298 295 294 293 292 291 290 290 291 292

GFSFLT1_850_thetae_045.txt.gz
Theta_e
324 324 322 322 321 320 322 324 325 322 316 313 313 318 321 321 323 323 323 321 320 319 322 322 321 320 318 314 310 308 305 302
323 322 321 319 321 322 323 323 323 323 319 314 315 318 319 324 324 324 322 319 318 319 320 320 320 318 315 311 309 307 304 305
327 326 323 321 319 321 323 324 325 324 320 314 315 320 323 326 325 324 323 320 319 320 320 319 318 316 312 310 307 307 308 303
327 328 326 324 321 319 320 322 323 325 322 317 317 323 325 325 324 325 324 321 319 320 320 318 316 313 311 308 307 308 306 299
328 328 328 326 325 323 321 322 322 322 325 321 319 321 323 322 324 324 323 320 319 319 318 316 313 311 310 307 307 308 304 295
328 328 328 327 325 323 322 322 322 323 324 325 322 322 322 323 324 325 323 319 319 318 317 315 313 311 308 307 306 308 307 307
327 329 330 328 328 326 324 323 325 325 326 326 326 326 324 324 325 325 321 319 319 318 316 314 312 310 307 306 308 310 310 303
328 329 329 330 329 328 326 326 326 327 327 327 326 325 324 325 326 325 322 320 318 318 316 313 312 309 306 306 309 310 307 300
328 328 328 329 327 329 328 327 327 327 327 327 327 325 324 323 324 324 322 321 320 319 316 313 311 309 312 306 308 304 299 296
321 326 328 329 327 326 327 328 327 327 327 327 327 327 325 323 322 323 324 321 319 318 314 312 310 308 306 307 302 300 297 296
321 322 323 325 326 326 327 328 327 327 327 327 327 327 326 324 324 324 323 321 320 319 313 312 309 307 306 302 299 298 298 296
322 323 323 324 324 324 324 325 325 325 325 326 326 326 326 325 325 323 321 321 320 318 314 311 307 304 302 299 299 301 297 297
324 324 325 325 326 326 326 326 325 325 327 326 325 322 322 322 322 321 321 320 319 318 314 307 303 305 300 298 299 300 299 296
323 323 323 323 323 323 325 326 326 326 326 325 324 322 322 321 322 321 320 319 318 316 309 302 302 300 299 300 301 298 296 296
325 326 327 327 327 327 327 327 327 326 326 325 324 324 323 322 321 320 318 317 314 311 304 302 300 299 300 301 299 296 296 295
322 323 324 325 326 326 327 326 326 326 326 325 324 323 321 319 316 314 311 307 303 301 301 299 300 301 300 299 299 296 295 294
317 318 318 319 318 318 319 319 319 320 321 322 321 320 318 314 310 309 305 303 301 300 299 300 301 301 299 298 295 293 293 293
313 313 312 312 313 313 314 315 316 317 318 318 317 314 311 308 306 304 301 300 300 300 300 301 300 299 297 294 293 292 292 291
313 313 313 313 313 313 313 313 314 315 315 314 312 310 307 304 302 300 299 299 300 301 300 299 297 295 293 292 291 291 290 290

GFSFLT1_850_thetae_048.txt.gz
Theta_e
325 325 325 324 323 323 323 323 323 321 318 314 315 320 322 324 324 323 322 323 323 322 322 321 322 321 320 318 315 311 308 306
326 324 324 324 324 325 324 325 325 326 325 321 318 320 323 325 324 321 323 323 322 321 320 320 321 321 318 317 313 310 307 307
327 327 326 324 324 325 324 325 326 326 327 323 320 319 322 324 324 323 324 323 321 319 319 320 320 318 318 316 312 309 308 309
328 328 327 327 325 326 325 325 326 328 327 325 322 321 323 324 324 324 324 323 322 321 320 320 320 319 318 314 311 308 308 308
329 329 329 328 327 325 326 326 327 328 327 327 324 321 323 324 325 325 324 324 323 322 320 320 320 318 315 313 310 307 308 307
328 329 330 330 329 328 326 325 326 327 327 327 326 323 322 325 326 324 324 324 324 322 320 319 318 317 315 312 311 307 307 309
328 328 331 331 331 330 329 327 327 327 327 325 327 327 325 325 324 322 323 324 324 322 319 318 317 315 314 312 309 307 308 310
330 329 330 332 332 332 328 326 327 326 325 324 323 324 326 326 324 323 323 324 324 321 319 318 316 314 313 311 308 306 308 309
329 330 330 332 333 333 331 328 326 326 324 325 326 326 326 326 325 324 324 324 324 322 320 318 316 314 313 310 307 306 307 302
326 327 329 331 333 334 332 332 331 329 326 325 326 327 326 326 325 325 325 325 323 322 321 318 317 314 312 308 305 307 303 297
323 324 327 330 332 332 332 332 331 330 328 327 327 327 327 327 326 326 324 323 323 322 321 319 317 315 309 305 305 302 301 297
325 325 326 327 329 330 330 329 330 330 329 327 326 326 326 326 326 325 324 323 323 322 321 319 317 315 307 303 304 301 297 300
327 328 328 328 328 328 328 328 329 329 329 328 326 325 326 325 325 324 323 323 322 322 321 319 316 312 304 303 301 298 299 300
327 329 329 329 329 329 328 328 328 328 328 326 325 326 325 324 323 322 322 322 321 320 319 314 312 304 302 303 302 300 299 298
327 328 329 329 329 329 329 327 327 327 327 327 327 326 325 323 322 321 321 320 318 317 314 310 305 302 302 300 301 300 299 297
325 327 329 329 329 329 328 327 327 327 326 326 324 322 322 320 319 319 318 317 315 313 309 305 302 301 301 301 300 300 299 298
322 322 323 323 324 324 323 322 321 321 321 321 321 319 319 316 315 312 310 307 305 303 302 301 301 301 301 300 299 298 297 296
317 316 316 316 316 315 315 316 316 316 317 317 317 316 314 311 308 306 305 303 303 301 301 301 301 301 300 299 297 294 294 294
313 312 313 313 313 313 313 313 314 314 314 314 313 311 309 307 305 303 302 301 300 301 301 300 299 298 296 294 293 292 292 293

GFSFLT1_850_thetae_051.txt.gz
Theta_e
326 325 323 323 323 324 322 321 319 321 321 317 321 321 320 321 324 325 325 326 325 323 325 324 322 321 320 319 318 316 314 312
327 326 325 324 325 325 325 325 324 324 324 322 319 321 322 323 324 326 325 326 322 323 325 323 321 321 320 319 317 315 312 310
327 326 326 326 326 325 326 325 325 325 325 324 321 319 321 322 324 326 326 325 325 323 324 322 320 321 320 318 317 314 313 311
328 326 326 326 326 326 326 327 328 327 327 326 323 321 321 322 324 326 326 325 325 323 322 322 321 320 319 318 317 314 313 311
328 329 327 326 326 327 327 327 326 327 327 327 325 323 321 323 324 325 327 323 323 324 321 321 320 320 319 318 316 314 313 312
328 329 329 329 327 326 327 327 326 326 328 327 328 325 323 324 325 326 326 325 324 324 322 321 321 320 319 317 315 314 311 311
327 328 329 329 329 329 327 327 327 327 328 328 328 327 325 323 325 326 326 326 324 323 323 323 321 319 319 317 315 313 311 310
327 327 329 330 331 331 330 329 327 327 328 329 329 329 328 326 325 328 326 325 323 322 323 323 322 320 318 315 313 311 310 308
327 328 328 330 332 333 332 331 330 328 329 329 330 330 330 329 328 327 327 326 325 322 323 324 322 320 318 314 311 312 309 306
326 328 329 330 332 333 334 333 332 331 329 327 324 330 331 330 328 328 327 327 325 324 325 324 321 319 316 315 312 311 305 305
325 327 328 330 331 334 335 336 334 333 331 329 328 331 329 327 327 327 326 326 325 324 324 323 321 320 317 315 312 307 304 305
326 326 327 328 330 333 336 336 335 334 333 333 332 329 327 327 326 327 326 325 325 324 323 321 321 318 313 312 307 304 304 303
328 328 328 328 330 332 334 334 334 333 333 332 331 330 330 329 327 327 326 324 322 322 322 321 316 312 309 307 305 303 303 303
327 330 330 330 330 331 332 332 332 332 332 332 330 329 329 329 327 326 323 321 319 319 319 317 314 310 308 305 302 302 301 302
324 327 330 331 331 331 331 331 331 331 331 330 328 327 325 324 324 322 321 320 319 318 317 316 312 308 306 302 302 302 303 301
325 325 327 329 331 331 332 330 329 327 326 325 325 324 323 321 319 318 318 317 316 315 313 310 308 305 303 302 303 302 301 300
324 327 329 331 331 331 329 326 325 323 321 319 320 318 314 316 315 314 311 311 308 307 306 304 303 302 302 301 301 300 300 299
324 326 326 325 326 325 323 321 319 318 316 315 315 315 315 313 310 308 305 304 303 303 302 301 301 301 301 301 300 299 297 297
321 320 320 320 320 318 317 316 315 313 312 312 312 312 310 307 305 305 304 302 301 301 302 302 301 299 298 296 294 293 293 294

GFSFLT1_850_thetae_054.txt.gz
Theta_e
326 324 321 320 318 317 315 314 314 314 313 313 313 313 314 312 313 319 321 320 320 322 324 324 323 323 322 320 319 319 318 315
325 323 321 320 319 319 317 316 315 318 317 314 318 321 320 317 319 320 324 322 321 321 322 325 323 323 321 321 320 318 318 314
327 324 322 322 323 321 320 318 316 318 319 319 317 321 321 318 320 325 323 323 322 323 323 323 323 322 322 321 320 319 318 314
327 326 324 323 325 325 323 322 322 321 321 323 322 320 319 321 322 324 323 326 324 324 322 324 323 321 321 320 320 319 317 313
328 327 327 325 326 325 326 325 325 325 322 325 325 322 320 321 321 323 324 325 324 324 324 324 324 322 321 320 320 319 316 313
329 327 327 327 327 326 326 326 326 325 326 324 326 324 322 321 322 323 325 326 324 323 325 324 323 322 321 320 319 319 318 316
329 329 326 327 326 327 326 327 327 326 328 326 327 327 325 323 322 324 325 325 326 324 324 324 323 323 322 320 319 317 317 313
328 329 329 328 327 326 327 327 327 327 327 327 328 327 328 326 324 324 325 325 325 324 324 322 323 323 323 321 319 316 315 314
327 328 330 330 330 329 328 327 328 328 327 327 328 326 327 327 326 324 327 327 327 325 324 323 321 322 321 319 317 315 314 312
327 327 328 330 330 330 330 330 329 328 328 327 324 323 325 326 326 327 325 326 327 326 325 325 323 322 321 319 317 315 314 312
325 327 328 329 330 331 331 331 331 331 328 327 327 323 325 323 324 328 329 327 326 326 326 324 324 322 321 318 315 314 312 311
325 325 327 329 330 333 333 333 333 333 332 329 329 327 325 324 329 330 328 327 327 325 324 324 323 322 319 316 316 314 311 309
327 326 327 328 330 332 333 334 335 334 332 331 331 330 329 330 328 329 327 326 324 323 321 321 320 319 318 315 313 310 308 305
328 328 328 328 328 331 336 336 336 334 332 330 330 330 329 328 327 326 324 324 323 322 321 319 318 317 315 312 310 308 306 304
326 329 330 330 330 331 333 334 334 333 332 330 331 330 328 326 325 324 324 322 321 320 319 318 316 314 310 308 307 306 303 302
323 327 330 331 331 332 333 332 332 332 331 330 330 329 325 323 322 321 320 319 318 317 316 315 312 309 307 304 302 302 301 301
321 324 328 330 331 331 332 332 331 330 329 327 325 323 321 319 317 316 315 314 313 312 309 306 305 303 302 301 301 300 300 300
321 324 328 330 332 332 330 328 327 325 324 322 318 316 315 315 312 311 309 308 307 306 304 302 301 301 300 300 300 299 298 296
324 327 330 330 330 327 324 323 321 319 316 314 314 313 312 309 307 307 306 304 302 302 302 301 300 299 298 297 295 293 293 293

GFSFLT1_850_thetae_057.txt.gz
Theta_e
322 320 319 319 319 318 317 316 318 317 317 316 315 317 316 314 314 315 315 314 317 319 320 322 324 323 323 323 321 320 319 317
323 320 320 319 318 317 318 319 319 318 318 317 314 314 313 314 315 313 312 313 314 315 318 322 324 323 322 322 321 320 319 318
324 321 319 318 316 315 316 316 316 317 316 314 314 314 314 315 314 311 317 319 321 320 317 321 322 322 323 322 320 320 320 319
324 323 319 318 318 316 315 315 315 315 313 313 314 316 314 316 313 316 321 320 322 322 321 321 321 322 323 322 320 320 320 319
325 323 321 321 321 319 316 316 316 316 315 314 314 314 319 320 318 316 319 323 322 321 322 322 322 322 323 322 321 320 320 319
327 325 322 322 323 324 322 319 317 318 319 320 320 321 321 319 319 320 320 322 324 323 324 323 322 323 323 323 321 321 320 318
328 328 325 323 323 324 325 324 322 322 322 321 324 326 324 322 320 321 321 321 324 324 324 324 322 324 324 323 322 321 320 318
328 327 326 325 324 326 326 325 325 325 324 324 323 323 326 325 322 321 321 322 323 325 325 325 324 323 323 323 322 321 319 317
328 328 328 327 325 325 327 326 325 326 326 325 327 324 325 326 326 324 322 323 323 324 324 325 324 322 321 323 322 320 319 316
328 328 328 328 327 326 325 326 326 326 327 326 327 327 326 326 326 326 324 324 325 325 325 325 324 323 323 322 321 320 318 316
327 329 329 329 328 328 328 327 326 326 326 326 326 327 327 327 327 327 325 322 324 324 325 325 324 324 324 322 321 319 317 315
325 326 328 329 329 329 329 328 327 327 327 326 327 327 327 327 326 326 325 325 327 326 325 324 324 324 322 321 321 319 316 314
323 324 326 327 329 329 329 329 329 329 329 328 328 328 327 327 324 325 325 326 328 326 325 322 321 320 321 320 319 317 314 312
325 323 327 327 330 330 330 330 331 330 330 330 329 328 322 324 325 326 326 327 325 323 322 322 320 319 319 318 314 311 309 308
324 324 323 326 328 332 334 333 333 330 329 331 330 330 328 328 328 326 326 324 323 322 321 320 320 318 315 312 310 308 307 305
326 326 325 326 329 331 334 332 331 330 331 330 330 330 329 328 327 325 323 322 322 321 320 318 316 314 312 309 308 306 303 302
326 327 329 328 330 330 331 332 332 331 330 330 329 329 329 328 325 322 320 319 318 317 316 314 313 310 307 305 303 301 301 300
320 327 330 331 330 328 331 332 331 330 330 329 327 327 326 322 321 319 316 315 314 313 311 308 305 303 301 300 300 300 299 298
320 323 329 331 331 331 331 331 331 328 327 326 323 322 321 318 315 313 311 309 308 307 305 302 301 300 300 299 297 295 293 293

GFSFLT1_850_thetae_060.txt.gz
Theta_e
321 322 321 319 320 320 320 321 319 317 316 318 319 317 316 315 315 315 316 318 321 322 321 322 323 323 323 323 322 322 321 320
321 320 321 319 319 320 320 318 317 315 315 315 315 315 314 315 316 315 318 320 319 320 319 319 320 322 322 323 323 322 321 320
321 320 320 319 318 319 318 316 315 314 315 315 315 316 316 316 316 316 317 315 314 313 313 314 319 322 321 323 323 322 321 320
323 320 319 319 318 318 318 317 317 316 317 317 316 316 316 316 317 316 315 315 312 314 319 319 316 321 321 322 323 322 321 320
325 319 319 318 317 316 318 319 319 319 317 317 315 315 315 314 314 314 315 312 315 318 319 322 322 320 320 321 323 323 322 320
325 322 318 317 317 315 317 318 318 317 318 316 315 315 314 314 314 315 312 311 316 320 321 322 321 321 320 321 322 322 322 321
326 326 320 318 318 316 315 315 314 314 313 313 313 313 314 314 314 314 313 312 315 319 322 323 322 323 323 322 321 322 322 321
325 325 323 320 319 319 317 316 316 315 314 314 314 314 314 315 318 318 318 319 319 320 322 323 324 324 324 324 322 322 323 322
326 326 326 324 320 321 322 321 318 317 317 317 318 319 320 322 323 323 322 319 320 321 321 322 323 324 324 323 322 323 323 323
326 326 327 327 324 321 321 322 323 322 320 320 319 319 320 321 323 325 325 322 321 321 322 322 323 323 324 323 322 322 322 322
327 326 327 327 327 326 322 321 322 322 323 322 322 322 324 324 323 324 326 325 324 324 325 325 324 324 323 323 322 323 322 321
326 327 327 327 327 327 326 324 323 323 324 325 324 325 325 325 326 325 326 326 325 324 323 322 323 324 323 322 323 322 321 320
324 326 327 327 327 327 327 326 325 325 325 325 326 325 326 326 325 325 322 324 325 325 323 324 325 323 322 322 321 321 320 318
324 325 325 326 327 327 327 327 327 326 326 326 326 325 325 326 322 324 323 320 321 324 324 325 322 320 319 318 319 319 317 314
323 324 326 327 327 328 328 328 326 326 326 327 327 327 327 325 326 324 323 322 322 326 325 323 321 320 319 319 318 315 313 310
324 323 323 322 320 326 330 328 329 329 328 327 328 327 323 324 327 326 323 325 326 325 322 321 320 320 319 317 315 312 309 307
325 324 323 323 322 320 328 330 331 331 330 329 328 328 328 326 326 325 325 324 324 322 321 320 319 317 315 314 311 308 305 303
323 325 324 324 323 322 321 331 332 331 331 329 329 327 327 326 326 324 323 322 321 319 317 316 315 313 311 308 305 302 301 300
320 324 324 325 325 325 325 327 330 330 330 329 328 328 326 326 325 321 320 319 316 314 313 311 309 306 303 301 300 299 299 298

GFSFLT1_850_thetae_066.txt.gz
Theta_e
324 321 320 320 321 321 322 324 324 324 324 323 317 321 320 317 322 321 321 316 316 316 316 316 316 315 317 320 321 321 321 321
324 321 319 318 319 320 320 322 323 323 324 322 323 319 316 322 321 321 318 316 315 316 316 316 316 315 319 320 321 322 322 322
325 321 321 318 318 319 319 321 322 322 323 321 319 320 322 320 317 316 318 316 315 316 316 316 316 317 320 322 322 322 322 322
326 323 319 319 318 317 318 318 320 321 320 319 320 319 320 321 317 317 316 316 317 317 317 318 317 320 321 320 320 319 321 322
327 325 321 318 318 317 318 318 319 320 319 317 317 319 319 320 317 319 316 316 316 316 317 320 320 321 320 315 316 317 320 321
326 327 325 319 317 317 317 319 319 319 318 317 317 318 318 319 319 316 315 315 315 315 318 319 317 315 313 314 318 321 320 319
325 326 326 324 318 317 317 318 319 318 316 316 316 316 319 318 318 317 316 316 316 315 315 316 313 312 312 314 317 320 321 321
324 326 326 326 322 317 317 316 318 318 317 316 316 318 319 319 317 316 315 315 315 315 315 316 315 315 314 313 318 320 321 322
324 324 326 326 326 321 316 316 316 317 318 317 316 316 315 316 317 317 316 315 315 316 316 315 315 315 314 313 313 316 319 319
323 323 325 326 326 325 322 316 315 316 317 317 317 316 316 316 317 316 315 315 316 316 315 315 314 314 314 318 319 319 319 321
323 323 324 325 326 326 325 321 317 315 316 316 317 317 317 317 317 316 316 316 316 315 315 314 314 314 318 321 321 320 321 318
323 323 324 324 325 326 326 325 322 318 316 315 315 315 315 316 315 315 315 315 314 314 314 314 315 322 323 322 322 322 321 320
322 323 324 324 324 325 325 325 325 323 319 318 316 315 314 314 314 314 314 313 314 315 316 321 321 322 322 324 324 322 320 322
321 322 323 324 324 324 324 325 325 324 323 319 319 318 316 315 317 321 320 318 319 318 318 320 322 322 320 320 321 324 323 321
320 319 320 321 323 323 324 324 324 324 324 323 321 320 320 319 320 321 320 318 320 321 321 321 322 322 321 319 321 323 321 319
321 320 322 322 322 322 323 323 324 324 324 324 324 323 322 321 321 321 322 319 320 321 321 320 322 324 319 320 322 321 319 319
322 319 320 322 322 321 322 322 322 323 324 324 324 324 323 324 323 322 322 323 321 321 321 323 323 324 323 320 322 321 319 318
321 321 321 320 322 322 322 322 323 323 324 324 325 325 325 324 324 324 324 323 324 323 323 325 324 323 322 321 321 318 317 315
322 322 321 321 320 321 323 322 322 324 325 325 325 325 325 325 325 325 324 324 323 323 323 321 321 322 321 319 319 315 313 311

GFSFLT1_850_thetae_069.txt.gz
Theta_e
326 323 320 320 323 324 324 325 325 325 325 325 324 323 321 321 321 320 316 314 316 317 317 317 318 318 319 319 320 320 320 320
327 325 320 320 320 321 323 324 324 324 325 325 325 323 319 320 319 319 318 315 315 317 318 318 318 317 317 317 319 321 321 321
327 326 321 319 319 320 321 322 323 324 324 322 321 320 316 318 317 322 321 316 315 316 317 317 316 316 316 315 318 319 321 321
327 326 324 317 318 319 320 321 321 322 323 323 320 319 318 321 319 321 321 317 316 316 316 316 316 316 316 317 318 318 320 321
327 326 325 320 317 317 319 320 321 322 321 321 321 321 320 319 318 321 321 318 316 316 316 316 316 317 317 317 318 317 317 318
324 327 326 325 318 317 317 318 319 320 321 321 321 320 319 320 321 320 318 316 316 316 316 316 318 317 318 318 319 315 318 320
322 326 326 326 322 317 317 318 319 320 320 320 319 321 320 320 319 316 316 316 316 317 316 316 317 316 319 317 314 314 315 318
322 324 325 326 325 320 316 316 318 318 319 319 318 318 318 318 320 317 316 317 316 316 316 316 316 318 318 313 313 313 313 314
321 323 324 325 326 325 319 316 316 318 318 317 317 318 318 319 319 319 318 318 316 315 315 315 315 315 316 315 316 315 314 314
320 322 323 325 325 326 325 319 316 317 318 317 317 317 317 317 317 318 319 317 315 315 315 315 315 315 315 315 315 315 314 316
320 321 322 324 324 325 326 325 319 316 316 317 317 316 316 317 318 319 319 318 317 316 315 315 315 316 316 316 315 314 314 317
321 321 322 323 324 325 326 326 325 321 317 316 316 316 316 316 316 317 317 318 318 317 316 316 315 316 315 315 315 314 318 321
319 322 322 323 323 324 324 325 325 325 323 318 316 316 315 315 315 314 313 313 314 314 315 316 315 314 314 314 314 317 320 322
319 321 322 322 323 323 324 324 325 325 324 323 320 318 316 316 315 315 315 315 314 314 313 314 313 314 313 318 320 321 320 320
320 320 320 320 321 322 323 323 323 323 324 324 324 322 321 321 317 315 315 314 314 314 314 314 317 317 317 318 321 322 322 321
320 320 321 321 321 321 322 322 323 323 323 323 323 324 324 321 320 319 317 315 315 316 319 319 319 319 321 321 321 322 320 320
320 320 320 321 320 320 321 321 321 322 321 320 322 322 323 323 323 321 319 319 318 318 319 321 320 320 321 322 323 323 319 321
320 320 320 321 321 320 321 321 321 321 321 321 322 322 322 323 323 323 323 322 321 321 321 322 322 322 321 322 322 321 320 320
319 319 319 321 322 321 320 321 322 321 321 321 322 323 323 324 324 324 324 323 323 323 323 322 323 323 323 323 322 320 319 319

GFSFLT1_850_thetae_072.txt.gz
Theta_e
327 326 323 322 322 323 325 323 325 326 326 326 324 323 318 317 319 316 310 313 312 310 313 311 311 316 316 318 318 318 318 318
328 326 323 320 320 323 324 323 324 324 325 324 323 322 320 318 317 317 311 313 314 312 314 311 314 318 318 319 319 319 320 319
328 326 325 322 319 321 322 323 324 325 325 325 324 323 323 322 318 316 313 314 313 313 313 313 316 318 320 318 320 320 320 320
328 327 325 323 318 319 321 323 323 325 324 324 323 323 323 322 323 317 315 318 314 314 316 316 317 318 317 317 318 319 319 319
328 327 326 324 321 318 319 322 322 323 323 324 323 324 323 321 321 321 320 320 319 314 316 317 317 317 317 317 316 317 319 319
329 328 327 325 322 317 318 320 321 321 323 323 323 321 321 319 317 318 319 320 319 316 315 316 316 316 316 317 317 317 317 317
328 328 327 325 323 320 317 319 320 322 321 322 323 323 321 319 318 318 319 318 317 317 315 316 316 316 317 317 317 318 316 317
327 328 327 326 324 321 320 322 321 320 320 320 321 321 321 321 321 320 319 321 318 316 316 316 316 316 316 316 317 318 318 316
326 327 327 327 325 323 318 321 321 321 321 321 320 321 321 321 320 319 318 321 320 316 316 316 315 316 316 317 318 317 317 314
326 327 327 327 326 324 323 321 321 321 321 321 321 320 321 322 321 320 320 318 318 318 317 316 316 317 317 318 316 317 316 317
325 327 327 327 326 325 324 322 320 320 320 319 320 319 319 320 321 321 320 319 319 318 317 317 318 318 319 318 318 319 319 319
324 325 326 326 326 325 324 324 322 319 316 319 318 318 318 318 319 320 320 320 320 319 318 317 318 318 318 318 319 319 319 320
322 325 327 326 326 326 325 324 323 323 319 316 316 317 317 317 317 318 318 319 320 320 319 319 318 317 317 318 319 319 318 319
321 324 326 327 326 326 325 325 324 323 322 320 317 316 316 316 315 316 318 319 320 320 320 319 319 318 317 317 317 317 319 317
321 321 324 326 327 326 326 325 324 324 324 323 322 320 318 317 316 316 316 316 317 317 318 318 318 317 317 317 315 313 314 314
321 321 321 324 326 326 326 326 324 324 324 324 324 324 322 319 318 317 317 317 317 317 317 317 315 314 314 314 315 315 316 317
320 321 320 320 322 325 326 326 325 323 323 322 323 323 323 323 321 319 319 319 319 319 319 319 319 315 317 316 317 319 321 322
319 320 320 320 320 320 321 322 326 323 322 322 321 322 322 322 322 321 321 320 320 319 319 319 319 319 317 319 319 322 323 322
317 318 318 319 320 319 319 323 324 322 322 322 322 321 321 322 322 321 321 321 320 320 319 319 320 320 320 320 321 322 322 322

GFSFLT1_850_thetae_075.txt.gz
Theta_e
329 329 327 326 327 328 325 326 325 326 327 326 326 324 323 321 320 317 314 319 317 316 317 318 319 319 318 318 318 318 317 316
330 330 327 326 326 325 324 326 324 325 325 326 324 323 323 321 316 316 317 318 316 316 316 314 315 317 317 318 319 319 319 317
330 330 329 326 326 324 324 325 324 325 326 324 325 324 323 322 318 318 315 312 313 316 317 319 317 319 320 320 321 321 320 318
330 330 330 328 326 325 325 324 324 325 325 325 324 324 322 321 319 319 312 312 313 314 316 314 313 317 318 319 319 320 321 320
330 331 330 329 326 325 323 323 324 325 325 325 324 323 322 321 318 318 315 310 313 315 315 313 311 313 318 319 320 318 319 318
330 331 330 329 327 325 325 324 323 325 325 325 325 324 324 323 322 316 318 311 313 314 317 315 312 315 318 319 319 317 317 318
329 330 330 330 328 325 325 322 322 324 325 323 324 324 323 323 323 323 318 313 315 318 318 315 313 317 318 317 317 317 317 318
328 330 330 330 329 326 324 324 325 324 323 323 323 324 324 322 323 321 322 318 315 315 318 318 315 318 318 317 317 317 317 317
326 329 330 330 329 328 324 324 325 325 323 322 323 324 324 323 322 321 320 320 320 318 318 318 315 316 317 317 317 317 317 318
326 328 329 330 330 329 326 324 325 325 325 324 322 323 324 322 322 322 321 319 318 319 316 316 315 316 317 316 317 316 316 317
325 327 328 330 330 329 328 325 325 325 325 325 324 324 324 323 323 322 322 322 320 319 319 319 316 316 316 316 317 316 316 316
325 327 328 329 330 330 329 327 325 324 324 325 325 324 324 324 323 323 322 322 321 320 320 320 316 316 316 317 317 317 317 317
323 325 327 329 329 330 329 328 327 325 324 324 324 324 324 323 324 324 323 322 322 321 321 320 320 319 317 318 317 318 318 319
323 324 326 328 329 329 329 329 328 327 325 324 323 324 323 322 322 322 323 324 323 322 321 321 320 319 320 319 319 319 320 320
321 322 323 327 329 329 329 329 329 328 326 325 324 324 322 321 322 322 323 323 323 322 322 321 321 320 320 320 320 320 320 320
320 321 322 323 327 329 329 329 329 329 328 326 325 324 324 324 323 323 322 322 322 322 322 322 322 321 321 320 320 320 320 319
320 320 321 322 322 326 328 329 328 328 328 327 327 327 326 325 324 323 322 322 321 322 321 322 322 321 321 321 320 320 320 319
320 320 320 320 321 322 323 327 328 328 328 328 328 327 327 326 325 324 323 322 321 320 320 320 320 320 320 319 318 318 317 315
319 320 320 320 320 319 320 322 326 328 328 327 327 327 326 327 326 325 324 323 322 322 322 321 321 321 321 321 320 319 317 317

GFSFLT1_850_thetae_081.txt.gz
Theta_e
329 328 327 329 327 328 326 323 327 327 326 325 324 325 324 325 326 324 325 324 321 318 321 317 316 314 320 321 320 318 318 319
329 329 328 329 327 328 327 321 327 329 325 325 326 325 324 325 326 325 324 320 320 321 320 319 322 320 320 321 319 318 318 318
330 329 328 329 327 327 327 322 322 327 325 325 325 325 324 323 324 324 322 320 320 321 321 322 321 322 321 320 318 318 318 317
330 329 329 328 327 326 326 321 321 325 326 324 326 325 324 323 323 322 321 319 318 317 318 318 323 322 322 320 318 317 317 316
330 330 329 329 328 326 326 321 322 323 325 324 324 325 323 323 323 320 318 317 316 316 320 319 321 322 320 320 319 317 315 316
330 330 330 330 329 327 326 322 320 323 323 324 324 323 324 323 323 322 316 318 316 317 320 320 320 321 321 321 318 314 314 317
329 330 330 331 330 328 326 323 322 325 324 324 324 324 323 324 322 323 322 319 317 318 319 319 317 318 318 316 315 315 315 315
330 330 331 331 331 330 328 325 323 325 323 325 324 324 323 322 323 322 320 315 314 317 318 318 319 319 317 317 317 317 315 317
330 330 331 331 331 330 329 327 322 320 326 325 324 323 323 323 322 322 321 316 314 314 317 318 318 319 317 315 316 316 317 319
330 330 330 331 331 330 330 329 323 322 321 327 326 325 323 323 323 322 323 320 314 314 316 316 317 316 315 314 313 313 318 318
328 330 330 330 330 330 330 330 327 322 321 322 324 323 323 324 323 322 322 322 322 316 316 315 315 317 318 316 314 315 314 318
324 327 330 330 330 330 330 330 329 324 322 322 322 323 324 323 323 323 323 322 322 322 321 316 313 311 312 314 314 314 315 313
321 323 329 331 331 331 330 330 330 329 323 324 325 324 321 324 325 323 322 323 322 322 322 322 319 314 311 312 313 314 315 315
320 321 323 329 331 330 331 330 330 330 327 324 325 326 325 321 322 324 323 323 322 322 321 322 322 322 320 315 313 314 314 315
320 320 321 321 324 330 331 330 330 330 329 326 325 326 325 325 323 322 322 321 323 323 322 322 322 322 321 321 319 317 317 318
320 320 320 321 322 322 324 327 331 331 330 329 327 325 326 326 325 325 324 324 323 323 323 323 323 322 322 322 321 320 320 320
320 320 320 321 321 321 322 322 325 330 331 330 330 328 326 326 326 325 325 325 325 325 324 324 323 323 322 322 322 322 321 320
321 320 319 318 318 317 318 321 322 322 327 330 330 330 329 328 327 326 325 325 325 325 325 325 325 324 323 323 323 322 322 321
318 318 315 315 315 315 316 318 320 321 322 321 326 329 329 329 328 327 327 326 326 325 325 325 325 325 325 324 324 323 323 322

GFSFLT1_850_thetae_084.txt.gz
Theta_e
327 329 328 327 328 328 328 326 327 326 326 324 324 324 325 325 327 327 328 326 324 324 323 312 307 308 312 314 312 314 311 315
328 329 328 327 328 328 327 326 326 325 325 325 323 324 325 325 327 327 328 325 324 323 325 312 308 314 319 316 318 319 318 317
328 328 328 328 328 328 327 326 322 324 325 325 324 324 323 325 326 326 326 325 324 324 324 313 311 319 320 318 320 320 318 318
328 328 329 328 328 328 327 326 321 325 324 323 324 324 325 325 324 325 325 325 324 321 320 319 315 315 320 321 320 318 318 319
328 328 329 329 328 328 327 325 320 320 324 324 325 325 324 323 324 324 325 324 321 320 322 318 316 320 318 321 320 317 318 318
328 329 329 329 328 328 327 325 320 319 327 323 324 326 325 324 323 324 324 322 320 321 323 321 320 321 318 321 319 317 317 317
327 329 329 329 328 328 327 325 320 320 323 323 323 324 323 323 323 323 323 321 321 321 320 321 319 319 320 321 320 318 318 317
328 328 328 329 328 328 328 325 321 319 321 323 322 322 323 323 322 323 322 322 320 319 317 317 318 319 321 320 320 318 319 318
328 329 329 329 329 329 329 326 323 319 318 322 323 322 323 322 323 323 322 321 319 316 315 318 319 320 319 320 320 319 319 317
328 329 329 329 329 330 330 328 325 320 318 320 323 322 322 322 322 323 323 323 321 318 316 316 319 319 319 318 318 318 316 316
328 329 329 329 329 330 330 329 327 324 318 318 320 323 324 323 322 322 322 322 322 322 320 318 315 317 318 319 319 318 318 317
329 329 329 329 330 330 330 329 329 328 324 319 318 323 325 324 323 322 322 321 321 322 320 315 314 316 317 317 319 319 316 315
326 330 329 329 329 330 330 329 329 329 328 324 320 318 322 324 324 323 322 322 321 321 321 320 315 314 314 316 317 317 316 315
322 325 327 329 329 329 328 327 327 328 328 327 324 321 321 321 320 322 322 322 322 322 321 321 322 320 316 316 316 316 316 316
321 322 322 323 326 328 328 328 328 327 327 327 327 326 324 323 324 322 322 322 323 322 321 321 321 321 322 322 321 318 315 314
320 318 317 317 318 321 322 325 327 328 327 327 326 327 326 325 325 325 324 323 321 322 321 322 321 321 321 321 322 322 322 321
315 314 314 315 315 317 319 320 322 323 328 327 325 325 325 325 326 326 325 325 324 323 323 322 321 322 322 322 322 322 322 321
314 313 313 314 314 315 316 317 319 321 323 326 327 327 327 326 325 326 326 326 325 325 325 324 324 323 323 323 323 322 322 322
312 312 313 313 314 314 314 315 315 317 318 319 321 323 325 326 326 325 325 326 326 326 326 325 325 325 324 324 324 324 324 323

GFSFLT1_850_thetae_087.txt.gz
Theta_e
318 325 327 328 329 330 329 328 327 326 322 325 324 323 325 326 328 328 325 326 326 326 324 318 310 310 309 313 321 320 320 320
317 324 327 329 329 329 328 328 326 322 320 325 323 326 324 327 328 328 328 327 327 321 322 318 309 308 308 311 318 320 320 320
320 325 328 329 328 328 328 327 325 322 319 324 324 324 327 324 325 327 328 328 327 324 323 321 308 307 307 308 313 319 319 318
323 326 328 329 328 328 327 327 324 322 320 324 323 324 324 325 324 326 325 327 327 324 323 321 308 307 309 309 316 318 316 317
324 326 328 328 328 328 328 327 325 321 320 324 323 324 322 323 324 325 326 327 327 325 325 322 309 308 312 314 314 316 316 317
324 327 327 328 328 328 328 327 325 321 320 321 323 323 324 325 323 325 322 326 325 325 324 325 314 313 317 319 314 319 320 318
321 325 328 328 328 328 328 327 326 321 318 321 323 323 323 325 325 322 322 325 325 325 324 322 320 316 314 320 316 316 320 318
320 325 327 328 328 328 328 327 326 321 317 320 323 324 324 324 324 323 323 323 324 323 322 320 320 317 315 316 318 320 320 317
319 322 325 327 328 328 328 328 326 322 318 321 322 323 323 323 324 323 323 324 324 322 321 321 323 321 318 319 321 319 319 319
319 322 325 327 328 328 328 328 327 323 319 318 321 323 323 323 323 323 323 322 323 321 321 321 321 321 320 319 320 318 319 318
322 324 324 326 328 328 328 328 328 325 320 318 319 321 323 323 322 322 322 323 322 322 321 320 319 318 318 319 320 320 320 319
326 325 325 326 327 328 328 328 328 326 324 320 319 320 321 322 322 322 322 322 322 322 322 321 319 316 316 319 319 319 319 319
328 327 327 326 326 326 327 328 327 327 325 323 320 319 320 322 322 322 321 321 321 321 322 322 322 319 316 316 317 318 318 319
324 327 327 327 327 327 327 327 327 327 327 326 324 321 320 320 322 322 323 321 321 321 321 321 321 321 321 319 318 316 317 318
315 319 323 325 325 325 325 325 326 326 327 327 326 324 323 321 320 320 322 322 321 321 320 320 320 320 321 321 319 315 314 315
312 314 316 319 321 322 323 325 326 326 326 325 325 325 325 325 324 323 323 322 322 321 321 320 321 321 320 320 320 320 321 319
310 311 314 314 316 317 319 321 323 325 325 323 323 324 324 325 324 324 324 325 324 324 323 322 322 321 321 320 320 320 320 321
309 308 311 312 313 314 314 316 318 320 322 322 322 322 324 324 325 324 325 325 325 325 325 324 324 324 323 323 322 321 321 321
310 310 310 310 312 312 312 313 313 314 315 317 318 320 321 322 323 323 324 323 323 324 325 325 325 325 325 325 324 323 323 323

GFSFLT1_850_thetae_090.txt.gz
Theta_e
320 318 317 326 328 328 330 330 329 328 328 326 325 327 329 327 327 327 325 327 327 327 325 324 325 321 324 324 322 320 321 321
319 319 316 322 329 328 330 330 329 327 327 325 324 324 323 329 327 328 327 325 328 323 325 326 326 317 322 323 319 320 320 321
320 318 317 320 328 328 330 330 329 327 325 324 322 323 323 325 324 327 328 326 325 323 325 327 323 316 322 321 318 320 319 320
320 319 318 322 327 327 329 329 328 327 323 322 323 323 325 325 325 326 327 327 325 323 322 325 320 316 312 312 318 319 319 320
320 319 319 323 325 328 329 329 328 326 323 321 320 322 323 322 324 325 326 324 327 327 326 322 322 312 309 310 317 318 319 320
320 320 319 321 328 328 329 328 327 326 323 320 321 322 323 322 324 323 325 324 326 327 326 323 322 317 309 308 311 316 318 319
320 320 320 323 327 329 329 328 327 326 323 319 320 322 323 322 322 323 324 325 325 326 326 324 323 317 309 307 309 309 317 317
319 319 320 322 326 329 329 328 327 327 324 319 318 322 323 323 324 322 324 323 325 326 325 325 323 321 314 309 311 312 313 317
318 319 320 321 325 328 328 328 327 327 325 319 317 321 322 323 323 324 323 322 323 325 325 325 325 323 318 311 316 317 316 313
316 318 320 321 325 326 327 328 327 327 326 320 317 321 322 323 324 324 323 322 322 324 324 323 324 322 317 316 314 314 319 317
318 317 320 322 325 326 328 328 327 327 326 321 317 321 322 322 323 323 323 322 322 323 323 323 321 320 321 319 318 316 316 316
322 322 323 324 325 325 327 327 327 327 326 322 318 320 321 322 321 322 323 322 322 322 322 322 321 320 321 322 322 320 320 320
324 324 324 325 325 325 327 326 326 327 327 324 321 319 319 321 320 321 321 321 322 322 322 322 322 321 321 320 318 319 320 319
318 322 323 324 325 325 326 326 326 327 327 326 324 322 320 320 321 320 320 320 320 321 321 322 322 321 321 321 319 317 316 318
311 314 315 319 322 323 324 324 325 326 326 326 325 325 323 322 321 320 321 320 320 320 320 320 320 320 320 321 321 321 320 318
307 308 312 314 317 320 322 323 325 325 325 325 325 325 325 325 324 323 322 322 321 321 320 320 320 320 320 320 320 320 320 320
307 308 310 311 314 314 318 320 322 324 324 323 323 323 323 323 324 324 324 324 324 324 323 322 322 322 321 321 320 320 319 319
305 307 309 311 312 310 313 314 320 320 321 321 322 322 323 323 323 322 322 321 323 323 324 324 324 324 324 324 323 322 322 321
307 307 307 309 308 305 306 309 311 312 315 316 318 320 321 321 321 321 321 322 322 322 321 321 322 322 323 323 324 324 323 323

GFSFLT1_850_thetae_093.txt.gz
Theta_e
318 318 318 319 318 327 330 328 330 330 328 328 327 326 326 325 326 328 328 326 326 326 326 326 326 325 322 325 326 325 324 322
317 318 318 320 318 319 328 328 330 330 329 328 328 326 327 325 325 326 325 325 327 328 326 327 327 326 325 326 326 324 321 321
317 317 318 320 318 317 326 328 329 330 329 328 326 323 323 327 327 327 327 326 326 326 326 326 327 326 325 325 325 322 321 321
317 318 318 320 318 317 321 327 329 330 329 328 326 321 324 325 324 324 327 326 324 327 322 325 325 325 324 325 325 323 320 320
316 318 319 320 319 318 324 328 329 330 329 327 324 318 322 323 324 325 327 325 324 325 323 325 325 326 320 323 324 322 320 320
316 317 318 320 319 320 325 329 330 330 328 327 323 319 322 322 323 326 325 326 327 325 324 322 325 324 318 322 324 322 319 319
316 317 318 319 321 323 326 327 329 330 328 326 322 318 321 323 322 323 324 326 324 326 326 321 323 324 316 314 313 313 314 319
319 315 318 319 323 323 324 326 328 329 327 326 322 318 322 323 322 324 322 323 325 324 326 325 324 323 323 318 315 309 312 319
322 319 317 318 323 325 325 326 328 328 327 325 322 319 322 322 322 323 323 323 324 323 326 326 326 324 323 321 316 309 314 316
322 322 316 318 322 324 325 327 329 328 327 325 322 319 321 322 322 322 322 322 322 323 324 325 324 324 323 320 314 310 308 309
323 323 318 320 323 326 326 328 329 328 327 326 322 318 319 323 322 322 323 325 324 322 323 325 324 324 324 320 318 310 310 311
322 323 321 323 324 325 326 329 327 327 327 326 322 317 318 323 323 323 323 323 322 322 322 323 323 323 323 322 320 311 312 315
315 324 324 324 324 324 323 325 325 327 326 325 321 317 318 323 321 321 322 322 322 322 322 323 322 323 322 321 320 315 318 316
309 317 319 322 322 322 322 322 325 325 326 325 322 320 318 320 320 320 320 321 321 321 321 322 321 322 321 321 320 321 321 321
305 308 311 315 320 319 321 322 325 325 325 325 324 323 322 320 320 320 320 320 320 320 320 320 321 321 321 321 321 321 320 320
302 303 305 313 315 318 320 321 322 323 323 323 324 324 324 323 322 321 321 321 320 320 320 320 320 320 319 319 320 320 320 320
303 299 303 304 307 311 314 318 321 322 323 323 323 323 322 322 322 323 323 322 322 322 322 321 320 321 320 320 320 320 320 320
301 302 302 302 304 306 311 314 316 318 318 317 321 323 322 322 322 322 323 322 322 321 321 321 322 322 322 322 322 322 322 322
301 306 306 304 304 304 306 309 314 315 314 309 317 319 319 320 320 320 321 321 321 321 321 320 321 321 321 321 321 322 322 322

GFSFLT1_850_thetae_096.txt.gz
Theta_e
319 319 319 322 326 331 334 334 331 329 330 329 327 329 330 328 325 325 326 328 328 326 326 328 326 326 325 323 323 325 325 325
319 319 319 319 321 326 332 335 331 330 330 330 328 328 332 328 325 325 325 328 329 327 326 326 327 326 325 324 324 325 324 324
319 319 320 320 321 320 330 334 328 330 329 330 328 328 330 327 325 325 326 326 326 326 325 326 326 325 325 323 323 324 324 323
317 318 319 321 324 321 329 333 325 330 330 330 329 328 328 326 324 326 326 327 327 326 327 326 326 326 326 323 323 324 324 323
320 319 318 320 326 328 330 333 325 329 330 330 329 327 325 323 323 326 326 326 325 326 325 326 326 326 324 323 324 325 323 323
323 321 319 319 324 329 330 331 326 328 329 330 329 329 326 323 325 325 325 327 327 326 320 325 325 326 325 325 325 325 324 323
323 324 321 320 324 330 331 327 326 328 330 330 329 328 325 325 323 325 326 326 326 325 324 322 325 324 324 325 324 324 323 323
323 324 325 321 327 331 330 327 327 329 330 330 329 326 324 325 323 324 325 325 325 325 325 325 325 325 326 324 319 323 324 318
321 322 325 324 326 330 331 333 328 329 330 330 328 325 319 325 325 323 323 324 326 324 325 326 324 321 322 323 320 319 318 317
318 319 326 327 325 330 329 332 329 329 328 329 327 325 319 325 325 325 322 323 323 325 324 325 325 323 323 323 321 317 315 314
315 320 326 324 326 330 327 329 329 329 327 327 327 324 320 327 324 323 323 323 323 325 323 324 325 324 323 324 323 322 318 315
311 315 324 325 327 329 326 326 325 328 327 326 326 323 322 326 323 322 322 323 323 323 322 324 325 324 324 324 324 323 320 316
308 308 315 325 326 325 324 325 325 327 328 325 325 322 322 324 323 323 323 323 324 324 322 323 323 323 324 323 322 323 319 316
305 304 305 318 323 322 323 324 324 325 326 325 326 326 324 323 325 322 322 323 323 323 322 322 322 322 322 323 322 322 320 318
302 300 301 305 317 321 322 322 323 324 326 325 323 323 324 324 323 321 321 321 321 322 322 322 322 322 322 322 322 322 321 320
302 299 298 301 307 316 321 321 321 322 323 322 322 323 324 324 322 322 321 320 320 320 320 320 320 321 321 321 322 321 321 321
303 301 298 298 300 304 312 320 320 321 321 321 321 321 322 322 322 322 322 321 321 321 320 320 320 320 320 319 320 319 319 319
299 300 301 296 297 301 306 310 311 314 316 318 319 320 320 322 322 322 322 322 322 322 321 321 321 322 322 321 321 321 320 320
300 300 298 301 301 302 304 305 308 307 307 311 312 316 315 318 319 320 320 320 320 320 321 321 320 321 321 321 322 322 322 321

GFSFLT1_850_thetae_099.txt.gz
Theta_e
320 319 320 322 324 327 332 339 340 333 329 329 329 328 326 326 330 330 328 327 327 327 329 328 328 328 326 325 324 325 326 325
321 321 320 321 322 326 331 337 339 336 331 330 329 329 328 327 326 329 329 328 326 326 328 327 330 327 326 325 325 326 325 325
322 322 322 321 321 322 327 334 338 336 332 331 330 330 329 329 326 329 329 327 326 326 328 327 327 327 326 325 322 321 323 324
321 321 321 322 322 324 324 329 335 337 332 332 334 333 332 330 327 329 327 326 327 327 326 327 325 326 326 326 321 323 325 324
323 323 322 322 321 323 326 328 333 336 333 335 335 332 331 329 329 328 326 326 326 327 326 326 326 325 326 326 325 324 324 324
324 324 325 323 322 322 327 329 332 335 334 335 335 334 332 330 328 327 325 328 326 326 322 326 326 325 326 325 325 324 323 324
323 324 325 325 323 322 327 331 334 334 332 335 334 334 332 329 327 328 328 326 327 326 323 324 325 325 326 325 322 322 323 324
321 322 324 326 327 322 327 332 335 331 333 334 335 334 332 328 327 328 326 326 327 328 323 324 324 324 325 324 323 323 324 324
319 320 321 324 328 325 328 333 333 331 332 333 334 334 330 328 326 327 326 325 326 326 325 322 325 322 323 324 324 324 324 324
317 317 317 323 326 327 330 334 330 328 329 333 333 332 329 327 326 326 324 325 325 326 326 325 322 323 324 324 325 323 320 319
313 312 312 319 325 327 331 333 330 327 327 330 331 331 327 326 326 326 325 325 324 326 324 325 325 324 322 322 324 323 320 320
309 306 312 322 327 328 333 331 329 328 327 327 331 330 327 325 325 326 326 324 324 323 325 325 325 324 324 322 322 324 322 319
305 304 308 317 324 328 329 328 327 326 326 326 328 328 326 324 325 325 324 324 323 324 325 323 324 325 325 324 322 323 323 320
303 305 302 305 313 321 325 326 325 325 325 325 326 326 327 324 324 323 323 323 322 323 323 322 323 324 324 323 323 323 324 324
303 303 302 300 303 310 319 323 324 324 325 325 325 324 321 322 323 323 323 323 324 323 324 323 322 323 323 324 323 323 323 321
299 299 303 300 299 303 309 318 323 324 324 324 323 322 321 321 323 324 323 323 325 324 323 323 323 323 323 322 322 322 322 322
299 299 300 303 298 299 301 305 314 320 322 322 322 321 320 321 323 323 321 320 321 321 321 321 322 323 323 322 322 323 322 322
298 298 298 300 301 299 300 300 303 309 315 317 318 320 321 321 323 323 323 321 320 320 321 319 320 320 320 320 320 320 321 321
298 299 299 299 300 301 301 301 301 302 304 306 308 310 314 319 321 322 322 322 321 321 321 321 321 321 321 321 321 320 320 320

GFSFLT1_850_thetae_102.txt.gz
Theta_e
321 319 319 320 321 322 334 334 331 334 330 335 337 336 332 330 334 332 330 329 328 328 329 330 330 328 330 329 327 325 325 326
321 320 319 320 321 323 331 336 334 331 335 329 336 332 331 328 326 331 333 328 326 325 327 326 328 328 330 329 326 325 326 326
323 322 321 321 320 322 325 336 337 334 336 332 335 335 330 329 328 329 328 328 328 327 326 327 327 328 328 328 326 325 326 326
322 322 323 323 323 323 322 326 338 336 335 337 335 336 333 334 331 330 330 329 328 327 327 327 326 327 327 328 326 325 325 325
323 323 324 324 323 322 324 322 328 337 335 337 335 333 332 331 331 331 329 328 328 327 328 327 327 326 326 327 326 325 325 325
324 324 325 325 325 325 323 324 324 333 335 336 335 334 335 332 331 330 329 327 326 326 326 326 326 326 326 325 326 324 325 324
323 323 323 324 325 326 326 324 325 329 333 337 335 334 334 333 331 330 329 326 325 327 326 326 324 326 326 326 326 324 323 322
320 320 320 320 323 325 328 326 328 330 333 336 335 336 334 333 331 328 326 322 325 326 326 325 324 325 325 325 326 325 322 321
317 316 316 316 318 323 328 328 330 332 334 335 335 337 334 333 330 327 326 324 326 326 327 324 324 324 325 324 325 325 324 324
314 312 310 311 314 321 326 328 331 334 335 333 335 335 333 332 329 328 325 325 325 325 326 323 323 324 324 325 325 325 322 322
310 307 306 312 317 323 327 328 333 334 333 332 332 335 333 331 328 326 325 325 324 326 325 325 324 323 324 324 324 322 321 322
306 303 306 311 316 323 332 332 333 333 331 327 331 333 332 329 328 326 325 325 325 325 325 325 324 322 323 322 321 323 323 323
303 301 303 309 314 322 326 330 330 331 329 327 330 332 330 328 327 326 325 325 325 324 324 324 324 325 325 324 322 322 322 324
301 299 300 304 308 313 321 325 327 328 328 327 328 329 327 326 326 325 324 324 324 324 323 323 324 324 323 324 323 322 322 322
299 299 298 301 304 305 311 317 323 326 325 326 327 327 326 324 324 324 324 324 323 323 323 323 323 323 324 324 324 323 323 322
297 299 298 298 302 303 303 307 314 320 324 325 325 324 324 323 323 323 323 322 323 322 322 323 322 322 322 322 323 323 323 322
296 298 299 300 299 303 302 301 303 308 314 320 323 324 323 321 322 325 325 325 325 325 323 325 323 322 322 322 323 323 323 323
296 295 296 298 300 299 303 300 301 302 306 309 313 318 321 321 321 323 324 323 323 324 324 324 324 323 323 322 322 322 322 322
295 296 296 296 298 300 299 302 301 301 302 303 304 307 311 315 318 320 321 320 321 321 321 321 321 321 321 321 321 322 322 321

GFSFLT1_850_thetae_105.txt.gz
Theta_e
320 320 320 318 319 319 326 332 333 334 334 329 327 337 337 329 328 327 326 327 330 331 332 331 330 330 329 329 329 329 326 327
321 321 320 318 319 320 325 331 333 336 334 331 328 329 337 334 331 331 330 328 326 327 327 330 330 331 331 329 328 329 326 325
322 321 321 319 319 320 323 325 333 334 333 333 331 329 335 336 333 333 332 328 328 326 324 325 328 327 329 329 327 329 326 324
322 323 323 322 322 324 333 330 335 333 333 333 334 333 334 336 335 333 331 329 329 328 326 326 326 326 327 327 327 329 326 324
324 324 325 325 325 325 326 336 336 335 334 334 331 331 330 329 331 332 329 330 329 328 328 327 327 326 326 326 329 328 326 325
321 322 322 323 325 325 326 327 332 332 333 334 331 329 331 328 333 331 331 331 331 329 328 327 327 326 325 325 327 327 327 325
319 320 321 323 324 325 325 326 326 329 330 329 333 332 332 333 332 331 332 331 330 329 328 327 327 326 326 326 326 327 326 325
316 317 318 318 318 321 324 325 326 327 334 328 330 332 335 334 332 333 331 330 329 328 325 326 326 326 325 325 326 325 326 325
312 311 312 314 316 318 319 322 325 327 336 333 331 335 336 334 334 333 331 330 329 327 323 325 325 324 324 325 326 326 324 325
306 307 310 312 317 320 322 323 321 326 334 336 333 335 336 335 334 333 332 329 327 323 326 326 326 324 325 325 325 325 325 325
304 305 306 309 312 315 320 324 323 325 329 336 331 333 333 335 334 332 331 329 325 324 325 325 324 324 324 324 324 325 325 325
301 300 302 304 308 311 316 324 329 329 332 333 333 332 332 334 333 331 330 328 324 324 324 325 324 323 323 324 324 325 325 325
301 299 299 301 305 309 313 322 328 330 331 331 331 329 332 334 333 330 329 327 324 325 324 324 325 323 323 324 324 324 324 323
299 299 298 298 301 306 308 317 324 328 329 328 327 329 332 331 330 328 328 324 325 324 326 325 325 325 323 322 323 323 322 321
298 298 298 299 299 300 304 307 315 321 325 327 328 328 329 328 328 327 325 324 323 323 323 325 324 324 325 324 323 323 322 322
297 297 298 299 299 300 301 304 307 312 316 323 326 327 326 326 326 325 324 323 324 323 322 322 322 324 323 324 324 323 323 323
295 296 297 298 299 299 300 302 304 306 308 311 315 322 325 325 325 323 324 324 324 323 323 322 321 321 322 322 324 322 323 322
294 294 295 296 297 298 299 301 302 304 304 304 305 311 320 323 324 323 323 324 322 323 323 322 322 321 322 322 322 322 322 322
293 292 293 294 296 299 299 300 301 301 303 301 301 302 308 315 318 319 321 321 320 321 321 320 318 320 321 322 322 321 322 321